Data for 10/26/2011

Time Sea-Level Adjusted Pressure Absolute Pressure Temperature Relative Humidity Dew Point Precipitation   
(mb) (inHg) (mb) (inHg) (C) (F) (%) (C) (F) (mm) (in)
00:01 1028 30.36 857 25.31 -3.6 25.6 85 -5.7 21.7 -91.4 -3.598
00:02 1028 30.36 857 25.31 -3.5 25.7 85 -5.7 21.7 -91.4 -3.598
00:03 1028 30.36 857 25.31 -3.6 25.6 85 -5.7 21.7 -91.4 -3.598
00:04 1028 30.36 857 25.31 -3.6 25.6 85 -5.8 21.6 -91.4 -3.598
00:05 1028 30.36 857 25.31 -3.6 25.5 85 -5.9 21.5 -91.4 -3.598
00:06 1028 30.36 857 25.31 -3.7 25.3 85 -5.9 21.4 -91.4 -3.598
00:07 1028 30.36 857 25.31 -3.8 25.1 85 -5.9 21.3 -91.4 -3.598
00:08 1028 30.36 857 25.31 -3.8 25.1 86 -5.9 21.5 -91.4 -3.598
00:09 1028 30.36 857 25.31 -3.8 25.1 86 -5.8 21.5 -91.4 -3.598
00:10 1028 30.36 857 25.31 -3.9 25 86 -5.9 21.5 -91.4 -3.598
00:11 1028 30.36 857 25.31 -3.9 24.9 87 -5.8 21.6 -91.4 -3.598
00:12 1028 30.36 857 25.31 -3.9 24.9 87 -5.8 21.6 -91.4 -3.598
00:13 1028 30.36 857 25.31 -4 24.9 87 -5.8 21.6 -91.4 -3.598
00:14 1028 30.36 857 25.31 -3.9 24.9 88 -5.7 21.7 -91.4 -3.598
00:15 1028 30.36 857 25.31 -3.9 25 87 -5.7 21.7 -91.4 -3.598
00:16 1028 30.36 857 25.31 -3.8 25.2 87 -5.7 21.8 -91.4 -3.598
00:17 1028 30.36 857 25.31 -3.7 25.3 86 -5.7 21.7 -91.4 -3.598
00:18 1028 30.36 857 25.31 -3.8 25.2 86 -5.7 21.7 -91.4 -3.598
00:19 1028 30.36 857 25.31 -3.7 25.3 86 -5.7 21.8 -91.3 -3.594
00:20 1028 30.36 857 25.31 -3.8 25.2 87 -5.7 21.8 -91.3 -3.594
00:21 1028 30.36 857 25.31 -3.8 25.1 87 -5.7 21.7 -91.3 -3.594
00:22 1028 30.36 857 25.31 -3.9 25 88 -5.6 21.9 -91.3 -3.594
00:23 1028 30.36 857 25.31 -3.9 25 89 -5.5 22.1 -91.3 -3.594
00:24 1028 30.36 857 25.31 -3.9 25 90 -5.4 22.3 -91.3 -3.594
00:25 1028 30.36 857 25.31 -3.9 25 90 -5.3 22.4 -91.3 -3.594
00:26 1028 30.36 857 25.31 -3.9 25 90 -5.3 22.5 -91.3 -3.594
00:27 1028 30.36 857 25.31 -3.9 25 91 -5.2 22.6 -91.3 -3.594
00:28 1028 30.36 857 25.31 -3.9 25 91 -5.2 22.6 -91.3 -3.594
00:29 1028 30.36 857 25.31 -3.8 25.1 91 -5.2 22.7 -91.3 -3.594
00:30 1028 30.36 857 25.31 -3.8 25.1 91 -5.2 22.7 -91.3 -3.594
00:31 1028 30.36 857 25.31 -3.8 25.2 90 -5.1 22.8 -91.3 -3.594
00:32 1028 30.36 857 25.31 -3.7 25.3 90 -5.1 22.8 -91.3 -3.594
00:33 1028 30.36 857 25.31 -3.7 25.3 90 -5.1 22.8 -91.3 -3.594
00:34 1028 30.36 857 25.31 -3.7 25.4 90 -5.1 22.8 -91.3 -3.594
00:35 1028 30.36 857 25.31 -3.6 25.4 90 -5.1 22.9 -91.3 -3.594
00:36 1028 30.36 857 25.31 -3.6 25.5 90 -5.1 22.9 -91.3 -3.594
00:37 1028 30.36 857 25.31 -3.6 25.5 90 -5.1 22.9 -91.3 -3.594
00:38 1028 30.36 857 25.31 -3.6 25.5 90 -5.1 22.8 -91.3 -3.594
00:39 1028 30.36 857 25.31 -3.6 25.5 90 -5.1 22.8 -91.3 -3.594
00:40 1028 30.36 857 25.31 -3.7 25.4 90 -5.1 22.7 -91.3 -3.594
00:41 1028 30.36 857 25.31 -3.7 25.4 90 -5.1 22.8 -91.3 -3.594
00:42 1028 30.36 857 25.31 -3.7 25.3 90 -5.1 22.8 -91.3 -3.594
00:43 1028 30.36 857 25.31 -3.7 25.4 90 -5.1 22.9 -91.3 -3.594
00:44 1028 30.36 857 25.31 -3.7 25.3 90 -5.1 22.8 -91.3 -3.594
00:45 1028 30.36 857 25.31 -3.7 25.3 90 -5.1 22.8 -91.3 -3.594
00:46 1028 30.36 857 25.31 -3.7 25.3 90 -5.2 22.7 -91.3 -3.594
00:47 1028 30.36 857 25.31 -3.8 25.2 90 -5.2 22.6 -91.3 -3.594
00:48 1028 30.36 857 25.31 -3.8 25.1 90 -5.2 22.7 -91.3 -3.594
00:49 1028 30.36 857 25.31 -3.9 25.1 91 -5.2 22.7 -91.3 -3.594
00:50 1028 30.36 857 25.31 -3.8 25.1 91 -5.1 22.8 -91.3 -3.594
00:51 1028 30.36 857 25.31 -3.9 25 91 -5.2 22.7 -91.3 -3.594
00:52 1028 30.36 857 25.31 -3.9 25 91 -5.2 22.6 -91.3 -3.594
00:53 1028 30.36 857 25.31 -3.9 25.1 91 -5.2 22.7 -91.3 -3.594
00:54 1028 30.36 857 25.31 -3.8 25.1 91 -5.2 22.7 -91.3 -3.594
00:55 1028 30.36 857 25.31 -3.9 25 91 -5.2 22.7 -91.3 -3.594
00:56 1028 30.36 857 25.31 -3.9 25 91 -5.2 22.6 -91.3 -3.594
00:57 1028 30.36 857 25.31 -3.9 25.1 91 -5.1 22.8 -91.3 -3.594
00:58 1028 30.36 857 25.31 -3.9 25.1 91 -5.1 22.8 -91.3 -3.594
00:59 1028 30.36 857 25.31 -3.8 25.2 91 -5 23 -91.3 -3.594
01:00 1028 30.36 857 25.31 -3.7 25.3 91 -5 23 -91.3 -3.594
01:01 1028 30.36 857 25.31 -3.7 25.4 91 -4.9 23.1 -91.3 -3.594
01:02 1028 30.36 857 25.31 -3.7 25.3 91 -5 23 -91.3 -3.594
01:03 1028 30.36 857 25.31 -3.7 25.3 91 -5 23 -91.3 -3.594
01:04 1028 30.36 857 25.31 -3.7 25.3 91 -5 23.1 -91.3 -3.594
01:05 1028 30.36 857 25.31 -3.7 25.3 91 -4.9 23.1 -91.3 -3.594
01:06 1028 30.36 857 25.31 -3.7 25.4 91 -4.9 23.1 -91.3 -3.594
01:07 1028 30.36 857 25.31 -3.7 25.4 91 -4.9 23.2 -91.3 -3.594
01:08 1028 30.36 857 25.31 -3.6 25.4 91 -4.9 23.3 -91.3 -3.594
01:09 1028 30.36 857 25.31 -3.6 25.5 91 -4.8 23.3 -91.3 -3.594
01:10 1028 30.36 857 25.31 -3.6 25.5 91 -4.9 23.2 -91.3 -3.594
01:11 1028 30.36 857 25.31 -3.6 25.5 91 -4.9 23.2 -91.3 -3.594
01:12 1028 30.36 857 25.31 -3.6 25.5 91 -4.9 23.2 -91.3 -3.594
01:13 1028 30.36 857 25.31 -3.6 25.5 91 -4.9 23.1 -91.3 -3.594
01:14 1028 30.36 857 25.31 -3.7 25.4 91 -5 23 -91.3 -3.594
01:15 1028 30.36 857 25.31 -3.6 25.5 91 -4.9 23.1 -91.3 -3.594
01:16 1028 30.36 857 25.31 -3.7 25.4 91 -5 23 -91.3 -3.594
01:17 1028 30.36 857 25.31 -3.7 25.4 91 -5 23 -91.3 -3.594
01:18 1028 30.36 857 25.31 -3.6 25.5 90 -5 23.1 -91.3 -3.594
01:19 1028 30.36 857 25.31 -3.6 25.6 90 -5 23.1 -91.3 -3.594
01:20 1028 30.36 857 25.31 -3.5 25.7 90 -4.9 23.1 -91.3 -3.594
01:21 1028 30.36 857 25.31 -3.5 25.7 89 -5 23.1 -91.3 -3.594
01:22 1028 30.36 857 25.31 -3.5 25.6 89 -5.1 22.9 -91.3 -3.594
01:23 1028 30.36 857 25.31 -3.6 25.6 89 -5.1 22.8 -91.3 -3.594
01:24 1028 30.36 857 25.31 -3.5 25.6 89 -5.1 22.9 -91.3 -3.594
01:25 1028 30.36 857 25.31 -3.6 25.6 89 -5.1 22.8 -91.3 -3.594
01:26 1028 30.36 857 25.31 -3.5 25.7 89 -5.1 22.8 -91.3 -3.594
01:27 1028 30.36 857 25.31 -3.5 25.7 89 -5.1 22.9 -91.3 -3.594
01:28 1028 30.36 857 25.31 -3.4 25.8 88 -5.1 22.8 -91.3 -3.594
01:29 1028 30.36 857 25.31 -3.5 25.7 88 -5.2 22.7 -91.3 -3.594
01:30 1028 30.36 857 25.31 -3.6 25.6 89 -5.2 22.6 -91.3 -3.594
01:31 1028 30.36 857 25.31 -3.6 25.4 89 -5.3 22.5 -91.3 -3.594
01:32 1028 30.36 857 25.31 -3.7 25.3 89 -5.3 22.5 -91.3 -3.594
01:33 1028 30.36 857 25.31 -3.7 25.3 89 -5.2 22.6 -91.3 -3.594
01:34 1028 30.36 857 25.31 -3.7 25.4 89 -5.2 22.6 -91.3 -3.594
01:35 1028 30.36 857 25.31 -3.6 25.5 89 -5.2 22.7 -91.3 -3.594
01:36 1028 30.36 857 25.31 -3.6 25.6 89 -5.2 22.7 -91.3 -3.594
01:37 1028 30.36 857 25.31 -3.5 25.7 88 -5.1 22.8 -91.3 -3.594
01:38 1028 30.36 857 25.31 -3.4 25.9 88 -5.1 22.7 -91.3 -3.594
01:39 1028 30.36 857 25.31 -3.4 25.8 88 -5.2 22.7 -91.3 -3.594
01:40 1028 30.36 857 25.31 -3.4 25.9 88 -5.2 22.7 -91.3 -3.594
01:41 1028 30.36 857 25.31 -3.3 26 87 -5.1 22.8 -91.3 -3.594
01:42 1028 30.36 857 25.31 -3.3 26.1 87 -5.1 22.7 -91.3 -3.594
01:43 1028 30.36 857 25.31 -3.2 26.3 87 -5.1 22.8 -91.3 -3.594
01:44 1028 30.36 857 25.31 -3.1 26.4 86 -5.2 22.7 -91.3 -3.594
01:45 1028 30.36 857 25.31 -3 26.6 85 -5.2 22.6 -91.3 -3.594
01:46 1028 30.36 857 25.31 -3.1 26.5 84 -5.4 22.3 -91.3 -3.594
01:47 1028 30.36 857 25.31 -3.2 26.3 84 -5.4 22.2 -91.3 -3.594
01:48 1028 30.36 857 25.31 -3.2 26.2 85 -5.4 22.2 -91.3 -3.594
01:49 1028 30.36 857 25.31 -3.3 26.1 85 -5.5 22.1 -91.3 -3.594
01:50 1028 30.36 857 25.31 -3.4 25.9 85 -5.5 22.1 -91.3 -3.594
01:51 1028 30.36 857 25.31 -3.4 25.9 85 -5.5 22.1 -91.3 -3.594
01:52 1028 30.36 857 25.31 -3.3 26 86 -5.4 22.2 -91.4 -3.598
01:53 1028 30.36 857 25.31 -3.3 26.1 85 -5.4 22.3 -91.4 -3.598
01:54 1028 30.36 857 25.31 -3.3 26.1 85 -5.4 22.2 -91.4 -3.598
01:55 1028 30.36 857 25.31 -3.2 26.2 85 -5.4 22.3 -91.4 -3.598
01:56 1028 30.36 857 25.31 -3.3 26 84 -5.6 21.9 -91.4 -3.598
01:57 1028 30.36 857 25.31 -3.5 25.7 85 -5.6 21.8 -91.4 -3.598
01:58 1028 30.36 857 25.31 -3.7 25.3 85 -5.8 21.6 -91.4 -3.598
01:59 1028 30.36 857 25.31 -3.9 25 86 -5.9 21.3 -91.4 -3.598
02:00 1028 30.36 857 25.31 -4.1 24.5 87 -6 21.3 -91.4 -3.598
02:01 1028 30.36 857 25.31 -4.3 24.3 87 -6.1 21 -91.4 -3.598
02:02 1028 30.36 857 25.31 -4.4 24.2 88 -6 21.1 -91.5 -3.602
02:03 1028 30.36 857 25.31 -4.4 24 88 -6.1 21 -91.5 -3.602
02:04 1028 30.36 857 25.31 -4.5 23.8 88 -6.3 20.7 -91.5 -3.602
02:05 1028 30.36 857 25.31 -4.7 23.5 88 -6.4 20.5 -91.5 -3.602
02:06 1028 30.36 857 25.31 -4.9 23.2 89 -6.5 20.3 -91.5 -3.602
02:07 1028 30.36 857 25.31 -5 23 90 -6.4 20.4 -91.5 -3.602
02:08 1028 30.36 857 25.31 -5.1 22.9 90 -6.5 20.3 -91.5 -3.602
02:09 1028 30.36 857 25.31 -5.1 22.7 90 -6.5 20.3 -91.5 -3.602
02:10 1028 30.36 857 25.31 -5.2 22.7 90 -6.5 20.3 -91.5 -3.602
02:11 1028 30.36 857 25.31 -5.2 22.7 91 -6.5 20.4 -91.5 -3.602
02:12 1028 30.36 857 25.31 -5.2 22.6 90 -6.6 20.1 -91.6 -3.606
02:13 1028 30.36 857 25.31 -5.3 22.5 90 -6.7 20 -91.6 -3.606
02:14 1028 30.36 857 25.31 -5.3 22.4 91 -6.6 20.2 -91.6 -3.606
02:15 1028 30.36 857 25.31 -5.3 22.5 91 -6.6 20.2 -91.6 -3.606
02:16 1028 30.36 857 25.31 -5.4 22.4 91 -6.6 20.1 -91.6 -3.606
02:17 1028 30.36 857 25.31 -5.3 22.4 92 -6.5 20.3 -91.6 -3.606
02:18 1028 30.36 857 25.31 -5.3 22.4 92 -6.4 20.5 -91.6 -3.606
02:19 1028 30.36 857 25.31 -5.3 22.4 91 -6.5 20.3 -91.6 -3.606
02:20 1028 30.36 857 25.31 -5.4 22.4 91 -6.6 20.1 -91.6 -3.606
02:21 1028 30.36 857 25.31 -5.4 22.2 91 -6.7 19.9 -91.6 -3.606
02:22 1028 30.36 857 25.31 -5.5 22.1 92 -6.6 20.2 -91.6 -3.606
02:23 1028 30.36 857 25.31 -5.4 22.3 92 -6.5 20.4 -91.6 -3.606
02:24 1028 30.36 857 25.31 -5.3 22.4 92 -6.4 20.5 -91.6 -3.606
02:25 1028 30.36 857 25.31 -5.2 22.6 93 -6.2 20.8 -91.6 -3.606
02:26 1028 30.36 857 25.31 -5.2 22.7 93 -6.1 20.9 -91.6 -3.606
02:27 1028 30.36 857 25.31 -5 23 94 -5.8 21.5 -91.6 -3.606
02:28 1028 30.36 857 25.31 -4.9 23.3 92 -6 21.2 -91.6 -3.606
02:29 1028 30.36 857 25.31 -4.9 23.2 90 -6.3 20.7 -91.6 -3.606
02:30 1028 30.36 857 25.31 -5.1 22.9 89 -6.6 20.1 -91.6 -3.606
02:31 1028 30.36 857 25.31 -5.3 22.5 88 -7 19.4 -91.7 -3.61
02:32 1028 30.36 857 25.31 -5.5 22 89 -7.1 19.1 -91.7 -3.61
02:33 1028 30.36 857 25.31 -5.8 21.6 89 -7.3 18.9 -91.7 -3.61
02:34 1028 30.36 857 25.31 -5.9 21.3 90 -7.4 18.8 -91.7 -3.61
02:35 1028 30.36 857 25.31 -6.1 21 89 -7.6 18.3 -91.7 -3.61
02:36 1028 30.36 857 25.31 -6.3 20.6 89 -7.9 17.8 -91.7 -3.61
02:37 1028 30.36 857 25.31 -6.5 20.3 91 -7.8 17.9 -91.7 -3.61
02:38 1028 30.36 857 25.31 -6.6 20.1 91 -7.8 17.9 -91.7 -3.61
02:39 1028 30.36 857 25.31 -6.6 20.1 92 -7.8 18 -91.8 -3.614
02:40 1028 30.36 857 25.31 -6.7 19.9 91 -8 17.7 -91.8 -3.614
02:41 1028 30.36 857 25.31 -6.8 19.8 91 -8 17.6 -91.8 -3.614
02:42 1028 30.36 857 25.31 -6.9 19.6 91 -8.1 17.5 -91.8 -3.614
02:43 1028 30.36 857 25.31 -6.9 19.6 92 -8 17.6 -91.8 -3.614
02:44 1028 30.36 857 25.31 -6.9 19.6 92 -8 17.6 -91.8 -3.614
02:45 1028 30.36 857 25.31 -6.9 19.5 91 -8.1 17.4 -91.8 -3.614
02:46 1028 30.36 857 25.31 -7 19.5 92 -8.1 17.5 -91.8 -3.614
02:47 1028 30.36 857 25.31 -6.8 19.7 94 -7.7 18.2 -91.9 -3.618
02:48 1028 30.36 857 25.31 -6.8 19.8 93 -7.8 18 -91.9 -3.618
02:49 1028 30.36 857 25.31 -6.8 19.8 91 -8 17.6 -91.9 -3.618
02:50 1028 30.36 857 25.31 -6.9 19.6 91 -8.2 17.2 -91.9 -3.618
02:51 1028 30.36 857 25.31 -7.1 19.1 88 -8.7 16.3 -91.9 -3.618
02:52 1028 30.36 857 25.31 -7.4 18.8 91 -8.6 16.4 -91.9 -3.618
02:53 1028 30.36 857 25.31 -7.3 18.8 91 -8.5 16.6 -91.9 -3.618
02:54 1028 30.36 857 25.31 -7.4 18.6 91 -8.7 16.4 -91.9 -3.618
02:55 1028 30.36 857 25.31 -7.6 18.4 90 -8.9 16 -91.9 -3.618
02:56 1028 30.36 857 25.31 -7.7 18.2 91 -8.9 15.9 -92 -3.622
02:57 1028 30.36 857 25.31 -7.7 18.1 91 -8.9 15.9 -92 -3.622
02:58 1028 30.36 857 25.31 -7.8 17.9 92 -9 15.9 -92 -3.622
02:59 1028 30.36 857 25.31 -7.9 17.8 92 -9 15.8 -92 -3.622
03:00 1028 30.36 857 25.31 -7.9 17.7 92 -9 15.8 -92 -3.622
03:01 1028 30.36 857 25.31 -7.9 17.7 93 -8.9 16 -92 -3.622
03:02 1028 30.36 857 25.31 -7.9 17.9 93 -8.8 16.2 -92 -3.622
03:03 1028 30.36 857 25.31 -7.8 17.9 93 -8.7 16.3 -92 -3.622
03:04 1028 30.36 857 25.31 -7.7 18.1 94 -8.6 16.5 -92 -3.622
03:05 1028 30.36 857 25.31 -7.6 18.3 94 -8.4 16.9 -92 -3.622
03:06 1028 30.36 857 25.31 -7.5 18.5 94 -8.3 17.1 -92 -3.622
03:07 1028 30.36 857 25.31 -7.4 18.7 93 -8.3 17 -92 -3.622
03:08 1028 30.36 857 25.31 -7.4 18.6 93 -8.4 16.8 -92 -3.622
03:09 1028 30.36 857 25.31 -7.4 18.7 92 -8.4 16.8 -92 -3.622
03:10 1028 30.36 857 25.31 -7.5 18.6 92 -8.6 16.6 -92.1 -3.626
03:11 1028 30.36 857 25.31 -7.5 18.6 92 -8.5 16.6 -92.1 -3.626
03:12 1028 30.36 857 25.31 -7.5 18.6 93 -8.5 16.8 -92.1 -3.626
03:13 1028 30.36 857 25.31 -7.4 18.7 93 -8.3 17.1 -92.1 -3.626
03:14 1028 30.36 857 25.31 -7.3 18.8 94 -8.1 17.4 -92.1 -3.626
03:15 1028 30.36 857 25.31 -7.2 19.1 94 -8 17.7 -92.1 -3.626
03:16 1028 30.36 857 25.31 -7 19.3 94 -7.8 18 -92.1 -3.626
03:17 1028 30.36 857 25.31 -6.9 19.6 94 -7.7 18.1 -92.1 -3.626
03:18 1028 30.36 857 25.31 -6.9 19.7 94 -7.7 18.2 -92.1 -3.626
03:19 1028 30.36 857 25.31 -6.8 19.8 94 -7.6 18.2 -92.1 -3.626
03:20 1028 30.36 857 25.31 -6.7 19.9 94 -7.6 18.4 -92.1 -3.626
03:21 1028 30.36 857 25.31 -6.6 20 94 -7.5 18.5 -92.1 -3.626
03:22 1028 30.36 857 25.31 -6.6 20.1 93 -7.5 18.4 -92.1 -3.626
03:23 1028 30.36 857 25.31 -6.6 20.1 93 -7.6 18.3 -92.1 -3.626
03:24 1028 30.36 857 25.31 -6.7 20 92 -7.7 18.2 -92.1 -3.626
03:25 1028 30.36 857 25.31 -6.7 20 91 -7.9 17.9 -92.1 -3.626
03:26 1028 30.36 857 25.31 -6.8 19.7 90 -8.2 17.2 -92.1 -3.626
03:27 1028 30.36 857 25.31 -7 19.5 90 -8.3 17.1 -92.1 -3.626
03:28 1028 30.36 857 25.31 -7.1 19.2 89 -8.6 16.5 -92.1 -3.626
03:29 1028 30.36 857 25.31 -7.3 18.8 90 -8.6 16.4 -92.2 -3.63
03:30 1028 30.36 857 25.31 -7.4 18.8 91 -8.6 16.5 -92.2 -3.63
03:31 1028 30.36 857 25.31 -7.5 18.6 91 -8.6 16.5 -92.2 -3.63
03:32 1028 30.36 857 25.31 -7.5 18.5 91 -8.7 16.3 -92.2 -3.63
03:33 1028 30.36 857 25.31 -7.6 18.4 91 -8.8 16.2 -92.2 -3.63
03:34 1028 30.36 857 25.31 -7.6 18.3 92 -8.8 16.2 -92.2 -3.63
03:35 1028 30.36 857 25.31 -7.7 18.1 91 -9 15.9 -92.2 -3.63
03:36 1028 30.36 857 25.31 -7.8 18 92 -8.9 16 -92.2 -3.63
03:37 1028 30.36 857 25.31 -7.8 17.9 93 -8.8 16.2 -92.2 -3.63
03:38 1028 30.36 857 25.31 -7.8 17.9 92 -8.9 16 -92.2 -3.63
03:39 1028 30.36 857 25.31 -7.9 17.8 91 -9.1 15.6 -92.2 -3.63
03:40 1028 30.36 857 25.31 -8.1 17.5 91 -9.3 15.2 -92.2 -3.63
03:41 1028 30.36 857 25.31 -8.3 17.2 90 -9.6 14.8 -92.2 -3.63
03:42 1028 30.36 857 25.31 -8.4 16.9 91 -9.6 14.6 -92.3 -3.634
03:43 1028 30.36 857 25.31 -8.4 16.8 93 -9.4 15.1 -92.3 -3.634
03:44 1028 30.36 857 25.31 -8.1 17.3 96 -8.7 16.4 -92.3 -3.634
03:45 1028 30.36 857 25.31 -7.9 17.8 96 -8.4 16.8 -92.3 -3.634
03:46 1028 30.36 857 25.31 -7.8 17.9 96 -8.4 16.9 -92.3 -3.634
03:47 1028 30.36 857 25.31 -7.6 18.4 96 -8.1 17.4 -92.2 -3.63
03:48 1028 30.36 857 25.31 -7.5 18.5 96 -8.1 17.5 -92.2 -3.63
03:49 1028 30.36 857 25.31 -7.4 18.7 96 -8 17.7 -92.2 -3.63
03:50 1028 30.36 857 25.31 -7.2 19.1 96 -7.7 18.1 -92.2 -3.63
03:51 1028 30.36 857 25.31 -7 19.4 95 -7.7 18.2 -92.2 -3.63
03:52 1028 30.36 857 25.31 -6.9 19.6 95 -7.6 18.3 -92.2 -3.63
03:53 1028 30.36 857 25.31 -6.9 19.6 93 -7.8 17.9 -92.2 -3.63
03:54 1028 30.36 857 25.31 -6.9 19.6 93 -7.8 17.9 -92.2 -3.63
03:55 1028 30.36 857 25.31 -6.8 19.7 94 -7.7 18.1 -92.2 -3.63
03:56 1028 30.36 857 25.31 -6.7 19.9 93 -7.7 18.1 -92.2 -3.63
03:57 1028 30.36 857 25.31 -6.9 19.7 91 -8.1 17.4 -92.2 -3.63
03:58 1028 30.36 857 25.31 -7 19.4 90 -8.4 16.9 -92.2 -3.63
03:59 1028 30.36 857 25.31 -7.2 19.1 90 -8.5 16.7 -92.2 -3.63
04:00 1028 30.36 857 25.31 -7.3 18.9 91 -8.6 16.6 -92.2 -3.63
04:01 1028 30.36 857 25.31 -7.4 18.8 93 -8.4 16.9 -92.2 -3.63
04:02 1028 30.36 857 25.31 -7.4 18.8 92 -8.4 16.9 -92.3 -3.634
04:03 1028 30.36 857 25.31 -7.4 18.7 92 -8.6 16.6 -92.3 -3.634
04:04 1028 30.36 857 25.31 -7.6 18.4 92 -8.7 16.4 -92.3 -3.634
04:05 1028 30.36 857 25.31 -7.6 18.4 93 -8.6 16.6 -92.3 -3.634
04:06 1028 30.36 857 25.31 -7.5 18.4 94 -8.4 16.9 -92.3 -3.634
04:07 1028 30.36 857 25.31 -7.4 18.8 96 -8 17.7 -92.3 -3.634
04:08 1028 30.36 857 25.31 -7.1 19.2 96 -7.7 18.1 -92.3 -3.634
04:09 1028 30.36 857 25.31 -6.9 19.5 97 -7.4 18.7 -92.3 -3.634
04:10 1028 30.36 857 25.31 -6.6 20.1 97 -7 19.3 -92.3 -3.634
04:11 1028 30.36 857 25.31 -6.5 20.3 95 -7.2 19.1 -92.3 -3.634
04:12 1028 30.36 857 25.31 -6.6 20 93 -7.6 18.3 -92.2 -3.63
04:13 1028 30.36 857 25.31 -6.6 20 94 -7.4 18.7 -92.2 -3.63
04:14 1028 30.36 857 25.31 -6.4 20.5 95 -7.1 19.1 -92.2 -3.63
04:15 1028 30.36 857 25.31 -6.4 20.5 92 -7.5 18.5 -92.2 -3.63
04:16 1028 30.36 857 25.31 -6.6 20.2 90 -7.9 17.8 -92.3 -3.634
04:17 1028 30.36 857 25.31 -6.7 19.9 89 -8.2 17.2 -92.3 -3.634
04:18 1028 30.36 857 25.31 -7 19.4 89 -8.5 16.8 -92.3 -3.634
04:19 1028 30.36 857 25.31 -7.2 19.1 91 -8.5 16.8 -92.3 -3.634
04:20 1028 30.36 857 25.31 -7.1 19.2 94 -8 17.6 -92.3 -3.634
04:21 1028 30.36 857 25.31 -6.8 19.7 95 -7.5 18.6 -92.3 -3.634
04:22 1028 30.36 857 25.31 -6.6 20.1 94 -7.4 18.7 -92.3 -3.634
04:23 1028 30.36 857 25.31 -6.5 20.3 94 -7.3 18.9 -92.3 -3.634
04:24 1028 30.36 857 25.31 -6.4 20.5 93 -7.4 18.6 -92.3 -3.634
04:25 1028 30.36 857 25.31 -6.4 20.4 91 -7.6 18.3 -92.3 -3.634
04:26 1028 30.36 857 25.31 -6.8 19.8 86 -8.7 16.3 -92.3 -3.634
04:27 1028 30.36 857 25.31 -7.3 19 86 -9.2 15.4 -92.4 -3.638
04:28 1028 30.36 857 25.31 -7.6 18.4 87 -9.4 15.1 -92.4 -3.638
04:29 1028 30.36 857 25.31 -7.8 18 88 -9.4 15 -92.4 -3.638
04:30 1028 30.36 857 25.31 -7.9 17.7 91 -9.1 15.5 -92.4 -3.638
04:31 1028 30.36 857 25.31 -7.9 17.8 92 -8.9 15.9 -92.4 -3.638
04:32 1028 30.36 857 25.31 -7.8 17.9 93 -8.7 16.3 -92.4 -3.638
04:33 1028 30.36 857 25.31 -7.7 18.1 94 -8.5 16.8 -92.4 -3.638
04:34 1028 30.36 857 25.31 -7.7 18.2 94 -8.5 16.7 -92.4 -3.638
04:35 1028 30.36 857 25.31 -7.6 18.3 94 -8.4 16.9 -92.4 -3.638
04:36 1028 30.36 857 25.31 -7.6 18.3 94 -8.4 16.9 -92.4 -3.638
04:37 1028 30.36 857 25.31 -7.5 18.5 94 -8.3 17.1 -92.4 -3.638
04:38 1028 30.36 857 25.31 -7.4 18.6 95 -8.1 17.4 -92.4 -3.638
04:39 1028 30.36 857 25.31 -7.4 18.8 94 -8.2 17.3 -92.4 -3.638
04:40 1028 30.36 857 25.31 -7.4 18.8 94 -8.2 17.3 -92.4 -3.638
04:41 1028 30.36 857 25.31 -7.2 19.1 96 -7.7 18.1 -92.4 -3.638
04:42 1028 30.36 857 25.31 -6.9 19.6 95 -7.6 18.3 -92.4 -3.638
04:43 1028 30.36 857 25.31 -6.9 19.5 92 -8 17.6 -92.4 -3.638
04:44 1028 30.36 857 25.31 -7.2 19.1 90 -8.6 16.6 -92.4 -3.638
04:45 1028 30.36 857 25.31 -7.4 18.7 89 -8.9 16 -92.4 -3.638
04:46 1028 30.36 857 25.31 -7.6 18.2 89 -9.2 15.4 -92.4 -3.638
04:47 1028 30.36 857 25.31 -7.8 17.9 90 -9.3 15.3 -92.4 -3.638
04:48 1028 30.36 857 25.31 -7.9 17.8 91 -9.1 15.7 -92.4 -3.638
04:49 1028 30.36 857 25.31 -7.8 17.9 94 -8.6 16.5 -92.4 -3.638
04:50 1028 30.36 857 25.31 -7.7 18.1 93 -8.7 16.4 -92.4 -3.638
04:51 1028 30.36 857 25.31 -7.8 18 93 -8.7 16.3 -92.4 -3.638
04:52 1028 30.36 857 25.31 -7.7 18.2 94 -8.5 16.7 -92.5 -3.642
04:53 1028 30.36 857 25.31 -7.6 18.3 93 -8.5 16.6 -92.5 -3.642
04:54 1028 30.36 857 25.31 -7.7 18.2 92 -8.8 16.1 -92.5 -3.642
04:55 1028 30.36 857 25.31 -7.8 18 92 -8.9 15.9 -92.5 -3.642
04:56 1028 30.36 857 25.31 -7.9 17.7 91 -9.1 15.5 -92.5 -3.642
04:57 1028 30.36 857 25.31 -7.9 17.7 92 -9 15.9 -92.5 -3.642
04:58 1028 30.36 857 25.31 -8 17.5 91 -9.3 15.2 -92.5 -3.642
04:59 1028 30.36 857 25.31 -8.2 17.3 91 -9.4 15 -92.5 -3.642
05:00 1028 30.36 857 25.31 -8.3 17.1 92 -9.3 15.2 -92.5 -3.642
05:01 1028 30.36 857 25.31 -8.2 17.2 93 -9.2 15.4 -92.5 -3.642
05:02 1028 30.36 857 25.31 -8.2 17.2 92 -9.3 15.3 -92.5 -3.642
05:03 1028 30.36 857 25.31 -8.3 17.1 92 -9.3 15.3 -92.5 -3.642
05:04 1028 30.36 857 25.31 -8.3 17.1 93 -9.3 15.3 -92.5 -3.642
05:05 1028 30.36 857 25.31 -8.2 17.2 93 -9.2 15.5 -92.5 -3.642
05:06 1028 30.36 857 25.31 -8.3 17.1 92 -9.4 15.1 -92.5 -3.642
05:07 1028 30.36 857 25.31 -8.4 17 92 -9.5 14.9 -92.5 -3.642
05:08 1028 30.36 857 25.31 -8.4 16.8 91 -9.7 14.6 -92.5 -3.642
05:09 1028 30.36 857 25.31 -8.5 16.6 91 -9.8 14.4 -92.5 -3.642
05:10 1028 30.36 857 25.31 -8.7 16.4 92 -9.8 14.3 -92.5 -3.642
05:11 1028 30.36 857 25.31 -8.7 16.3 93 -9.7 14.5 -92.5 -3.642
05:12 1028 30.36 857 25.31 -8.7 16.4 93 -9.7 14.6 -92.5 -3.642
05:13 1028 30.36 857 25.31 -8.7 16.4 93 -9.6 14.7 -92.5 -3.642
05:14 1028 30.36 857 25.31 -8.6 16.5 93 -9.5 14.8 -92.5 -3.642
05:15 1028 30.36 857 25.31 -8.6 16.6 93 -9.4 15 -92.5 -3.642
05:16 1028 30.36 857 25.31 -8.5 16.7 94 -9.3 15.2 -92.5 -3.642
05:17 1028 30.36 857 25.31 -8.4 16.8 94 -9.3 15.3 -92.5 -3.642
05:18 1028 30.36 857 25.31 -8.3 17 94 -9.1 15.6 -92.5 -3.642
05:19 1028 30.36 857 25.31 -8.3 17.2 93 -9.1 15.5 -92.5 -3.642
05:20 1028 30.36 857 25.31 -8.2 17.2 94 -9 15.7 -92.5 -3.642
05:21 1028 30.36 857 25.31 -8.1 17.4 94 -8.9 15.9 -92.5 -3.642
05:22 1028 30.36 857 25.31 -8 17.6 94 -8.8 16.1 -92.5 -3.642
05:23 1028 30.36 857 25.31 -7.9 17.7 94 -8.8 16.2 -92.5 -3.642
05:24 1028 30.36 857 25.31 -7.9 17.8 93 -8.8 16.2 -92.5 -3.642
05:25 1028 30.36 857 25.31 -7.9 17.8 93 -8.9 16 -92.5 -3.642
05:26 1028 30.36 857 25.31 -7.9 17.8 93 -8.8 16.1 -92.5 -3.642
05:27 1028 30.36 857 25.31 -7.8 17.9 93 -8.7 16.3 -92.5 -3.642
05:28 1028 30.36 857 25.31 -7.8 18 93 -8.8 16.2 -92.5 -3.642
05:29 1028 30.36 857 25.31 -7.9 17.9 92 -8.9 16 -92.5 -3.642
05:30 1028 30.36 857 25.31 -7.8 17.9 93 -8.8 16.2 -92.5 -3.642
05:31 1028 30.36 857 25.31 -7.7 18.1 93 -8.7 16.4 -92.6 -3.646
05:32 1028 30.36 857 25.31 -7.7 18.1 94 -8.6 16.6 -92.6 -3.646
05:33 1028 30.36 857 25.31 -7.6 18.3 94 -8.5 16.7 -92.6 -3.646
05:34 1028 30.36 857 25.31 -7.5 18.5 94 -8.3 17 -92.5 -3.642
05:35 1028 30.36 857 25.31 -7.4 18.6 94 -8.3 17.1 -92.5 -3.642
05:36 1028 30.36 857 25.31 -7.3 18.8 94 -8.2 17.3 -92.5 -3.642
05:37 1028 30.36 857 25.31 -7.2 19 94 -8.1 17.4 -92.5 -3.642
05:38 1028 30.36 857 25.31 -7.2 19 93 -8.1 17.4 -92.5 -3.642
05:39 1028 30.36 857 25.31 -7.2 19.1 93 -8 17.5 -92.5 -3.642
05:40 1028 30.36 857 25.31 -7.1 19.3 93 -8 17.7 -92.5 -3.642
05:41 1028 30.36 857 25.31 -7 19.3 93 -8 17.7 -92.5 -3.642
05:42 1028 30.36 857 25.31 -7 19.4 94 -7.8 17.9 -92.5 -3.642
05:43 1028 30.36 857 25.31 -6.9 19.6 94 -7.7 18.1 -92.5 -3.642
05:44 1028 30.36 857 25.31 -6.9 19.6 94 -7.7 18.1 -92.5 -3.642
05:45 1028 30.36 857 25.31 -6.8 19.8 94 -7.7 18.2 -92.5 -3.642
05:46 1028 30.36 857 25.31 -6.7 19.9 94 -7.6 18.3 -92.5 -3.642
05:47 1028 30.36 857 25.31 -6.7 20 94 -7.5 18.5 -92.5 -3.642
05:48 1028 30.36 857 25.31 -6.6 20.1 94 -7.4 18.6 -92.5 -3.642
05:49 1028 30.36 857 25.31 -6.5 20.3 94 -7.4 18.7 -92.5 -3.642
05:50 1028 30.36 857 25.31 -6.4 20.4 94 -7.3 18.9 -92.5 -3.642
05:51 1028 30.36 857 25.31 -6.4 20.6 94 -7.2 19.1 -92.5 -3.642
05:52 1028 30.36 857 25.31 -6.3 20.7 94 -7.1 19.2 -92.5 -3.642
05:53 1028 30.36 857 25.31 -6.2 20.8 94 -7.1 19.3 -92.4 -3.638
05:54 1028 30.36 857 25.31 -6.2 20.9 94 -7 19.4 -92.4 -3.638
05:55 1028 30.36 857 25.31 -6.1 21 94 -7 19.5 -92.4 -3.638
05:56 1028 30.36 857 25.31 -6.1 21.1 94 -6.9 19.6 -92.4 -3.638
05:57 1028 30.36 857 25.31 -6.1 21.1 94 -6.9 19.5 -92.4 -3.638
05:58 1028 30.36 857 25.31 -6 21.2 94 -6.9 19.6 -92.4 -3.638
05:59 1028 30.36 857 25.31 -6 21.3 94 -6.9 19.7 -92.4 -3.638
06:00 1028 30.36 857 25.31 -5.9 21.3 94 -6.8 19.8 -92.4 -3.638
06:01 1028 30.36 857 25.31 -5.9 21.3 94 -6.8 19.8 -92.4 -3.638
06:02 1028 30.36 857 25.31 -5.9 21.4 94 -6.8 19.8 -92.4 -3.638
06:03 1028 30.36 857 25.31 -5.9 21.5 94 -6.7 19.9 -92.4 -3.638
06:04 1028 30.36 857 25.31 -5.8 21.5 94 -6.7 19.9 -92.4 -3.638
06:05 1028 30.36 857 25.31 -5.8 21.5 94 -6.7 20 -92.4 -3.638
06:06 1028 30.36 857 25.31 -5.8 21.6 94 -6.6 20.1 -92.4 -3.638
06:07 1028 30.36 857 25.31 -5.7 21.7 94 -6.6 20.2 -92.4 -3.638
06:08 1028 30.36 857 25.31 -5.7 21.8 94 -6.5 20.3 -92.4 -3.638
06:09 1028 30.36 857 25.31 -5.6 21.8 94 -6.5 20.3 -92.4 -3.638
06:10 1028 30.36 857 25.31 -5.6 21.9 94 -6.5 20.3 -92.3 -3.634
06:11 1028 30.36 857 25.31 -5.6 21.9 94 -6.5 20.3 -92.3 -3.634
06:12 1028 30.36 857 25.31 -5.6 21.9 94 -6.5 20.4 -92.3 -3.634
06:13 1028 30.36 857 25.31 -5.6 21.9 94 -6.4 20.5 -92.3 -3.634
06:14 1028 30.36 857 25.31 -5.6 22 94 -6.4 20.5 -92.3 -3.634
06:15 1028 30.36 857 25.31 -5.5 22 94 -6.3 20.6 -92.3 -3.634
06:16 1028 30.36 857 25.31 -5.6 22 94 -6.3 20.6 -92.3 -3.634
06:17 1028 30.36 857 25.31 -5.5 22.1 94 -6.3 20.7 -92.3 -3.634
06:18 1028 30.36 857 25.31 -5.5 22.2 94 -6.2 20.8 -92.3 -3.634
06:19 1028 30.36 857 25.31 -5.4 22.2 94 -6.2 20.8 -92.3 -3.634
06:20 1028 30.36 857 25.31 -5.4 22.3 94 -6.2 20.8 -92.3 -3.634
06:21 1028 30.36 857 25.31 -5.4 22.3 94 -6.2 20.8 -92.3 -3.634
06:22 1028 30.36 857 25.31 -5.3 22.4 94 -6.1 21 -92.3 -3.634
06:23 1028 30.36 857 25.31 -5.3 22.4 94 -6.1 21 -92.3 -3.634
06:24 1028 30.36 857 25.31 -5.3 22.4 94 -6.1 21 -92.3 -3.634
06:25 1028 30.36 857 25.31 -5.3 22.4 94 -6.1 21 -92.3 -3.634
06:26 1028 30.36 857 25.31 -5.3 22.5 94 -6.1 21.1 -92.3 -3.634
06:27 1028 30.36 857 25.31 -5.2 22.6 94 -6 21.2 -92.3 -3.634
06:28 1028 30.36 857 25.31 -5.2 22.6 95 -6 21.3 -92.3 -3.634
06:29 1028 30.36 857 25.31 -5.2 22.7 94 -6 21.3 -92.3 -3.634
06:30 1028 30.36 857 25.31 -5.1 22.8 94 -5.9 21.4 -92.2 -3.63
06:31 1028 30.36 857 25.31 -5.1 22.8 94 -5.9 21.4 -92.2 -3.63
06:32 1028 30.36 857 25.31 -5.1 22.9 94 -5.8 21.5 -92.2 -3.63
06:33 1028 30.36 857 25.31 -5 22.9 94 -5.8 21.5 -92.2 -3.63
06:34 1028 30.36 857 25.31 -5.1 22.9 94 -5.9 21.4 -92.2 -3.63
06:35 1028 30.36 857 25.31 -5 22.9 94 -5.8 21.5 -92.2 -3.63
06:36 1028 30.36 857 25.31 -5 23 94 -5.8 21.6 -92.2 -3.63
06:37 1028 30.36 857 25.31 -5 23.1 94 -5.8 21.6 -92.2 -3.63
06:38 1028 30.36 857 25.31 -4.9 23.1 94 -5.8 21.6 -92.2 -3.63
06:39 1028 30.36 857 25.31 -4.9 23.2 94 -5.8 21.6 -92.2 -3.63
06:40 1028 30.36 857 25.31 -4.9 23.2 94 -5.8 21.6 -92.2 -3.63
06:41 1028 30.36 857 25.31 -4.9 23.2 94 -5.8 21.6 -92.2 -3.63
06:42 1028 30.36 857 25.31 -4.9 23.2 94 -5.7 21.7 -92.2 -3.63
06:43 1028 30.36 857 25.31 -4.9 23.2 94 -5.7 21.7 -92.2 -3.63
06:44 1028 30.36 857 25.31 -4.9 23.2 94 -5.7 21.8 -92.2 -3.63
06:45 1028 30.36 857 25.31 -4.8 23.3 94 -5.7 21.8 -92.1 -3.626
06:46 1028 30.36 857 25.31 -4.8 23.3 94 -5.7 21.8 -92.1 -3.626
06:47 1028 30.36 857 25.31 -4.8 23.3 94 -5.6 21.8 -92.1 -3.626
06:48 1028 30.36 857 25.31 -4.8 23.3 94 -5.7 21.8 -92.1 -3.626
06:49 1028 30.36 857 25.31 -4.8 23.3 94 -5.6 21.9 -92.1 -3.626
06:50 1028 30.36 857 25.31 -4.8 23.4 94 -5.6 22 -92.1 -3.626
06:51 1028 30.36 857 25.31 -4.7 23.5 94 -5.5 22 -92.1 -3.626
06:52 1028 30.36 857 25.31 -4.7 23.5 94 -5.5 22 -92.1 -3.626
06:53 1028 30.36 857 25.31 -4.8 23.4 94 -5.6 22 -92.1 -3.626
06:54 1028 30.36 857 25.31 -4.7 23.5 94 -5.5 22 -92.1 -3.626
06:55 1028 30.36 857 25.31 -4.7 23.5 94 -5.5 22.1 -92.1 -3.626
06:56 1028 30.36 857 25.31 -4.7 23.6 94 -5.5 22.1 -92.1 -3.626
06:57 1028 30.36 857 25.31 -4.6 23.6 94 -5.5 22.2 -92.1 -3.626
06:58 1028 30.36 857 25.31 -4.7 23.6 94 -5.5 22.2 -92.1 -3.626
06:59 1028 30.36 857 25.31 -4.7 23.6 94 -5.5 22.1 -92 -3.622
07:00 1028 30.36 857 25.31 -4.6 23.7 94 -5.4 22.2 -92 -3.622
07:01 1028 30.36 857 25.31 -4.6 23.7 94 -5.4 22.3 -92 -3.622
07:02 1028 30.36 857 25.31 -4.6 23.7 94 -5.4 22.2 -92 -3.622
07:03 1028 30.36 857 25.31 -4.7 23.6 94 -5.5 22.1 -92 -3.622
07:04 1028 30.36 857 25.31 -4.6 23.7 94 -5.4 22.2 -92 -3.622
07:05 1028 30.36 857 25.31 -4.6 23.7 94 -5.5 22.1 -92 -3.622
07:06 1028 30.36 857 25.31 -4.6 23.7 94 -5.5 22.2 -92 -3.622
07:07 1028 30.36 857 25.31 -4.6 23.7 94 -5.4 22.2 -92 -3.622
07:08 1028 30.36 857 25.31 -4.6 23.7 94 -5.5 22.2 -92 -3.622
07:09 1028 30.36 857 25.31 -4.6 23.7 94 -5.4 22.2 -92 -3.622
07:10 1028 30.36 857 25.31 -4.6 23.7 94 -5.4 22.2 -92 -3.622
07:11 1028 30.36 857 25.31 -4.5 23.8 94 -5.3 22.4 -92 -3.622
07:12 1028 30.36 857 25.31 -4.6 23.8 94 -5.4 22.3 -92 -3.622
07:13 1028 30.36 857 25.31 -4.5 23.9 94 -5.3 22.4 -92 -3.622
07:14 1028 30.36 857 25.31 -4.5 23.9 94 -5.3 22.4 -92 -3.622
07:15 1028 30.36 857 25.31 -4.5 23.9 94 -5.3 22.4 -92 -3.622
07:16 1028 30.36 857 25.31 -4.5 23.8 94 -5.4 22.4 -92 -3.622
07:17 1028 30.36 857 25.31 -4.5 23.9 94 -5.3 22.5 -92 -3.622
07:18 1028 30.36 857 25.31 -4.5 24 94 -5.3 22.5 -92 -3.622
07:19 1028 30.36 857 25.31 -4.5 24 94 -5.3 22.5 -92 -3.622
07:20 1028 30.36 857 25.31 -4.5 23.9 94 -5.3 22.4 -92 -3.622
07:21 1028 30.36 857 25.31 -4.5 24 94 -5.3 22.5 -92 -3.622
07:22 1028 30.36 857 25.31 -4.4 24.1 94 -5.3 22.5 -92 -3.622
07:23 1028 30.36 857 25.31 -4.4 24 94 -5.3 22.5 -92 -3.622
07:24 1028 30.36 857 25.31 -4.4 24 94 -5.3 22.5 -92 -3.622
07:25 1028 30.36 857 25.31 -4.4 24.1 94 -5.3 22.5 -92 -3.622
07:26 1028 30.36 857 25.31 -4.4 24.1 94 -5.2 22.6 -92 -3.622
07:27 1028 30.36 857 25.31 -4.4 24.1 94 -5.2 22.6 -92 -3.622
07:28 1028 30.36 857 25.31 -4.4 24.1 94 -5.2 22.6 -92 -3.622
07:29 1028 30.36 857 25.31 -4.3 24.2 94 -5.2 22.7 -92 -3.622
07:30 1028 30.36 857 25.31 -4.3 24.2 94 -5.2 22.7 -92 -3.622
07:31 1028 30.36 857 25.31 -4.4 24.2 94 -5.2 22.7 -92 -3.622
07:32 1028 30.36 857 25.31 -4.3 24.2 94 -5.2 22.7 -92 -3.622
07:33 1028 30.36 857 25.31 -4.4 24.2 94 -5.2 22.6 -91.9 -3.618
07:34 1028 30.36 857 25.31 -4.4 24 94 -5.3 22.4 -91.9 -3.618
07:35 1028 30.36 857 25.31 -4.4 24.1 93 -5.3 22.4 -91.9 -3.618
07:36 1028 30.36 857 25.31 -4.5 23.9 93 -5.4 22.3 -91.9 -3.618
07:37 1028 30.36 857 25.31 -4.5 23.9 94 -5.4 22.3 -91.9 -3.618
07:38 1028 30.36 857 25.31 -4.5 23.8 93 -5.5 22.2 -91.9 -3.618
07:39 1028 30.36 857 25.31 -4.6 23.8 93 -5.5 22.1 -91.9 -3.618
07:40 1028 30.36 857 25.31 -4.6 23.7 93 -5.5 22.1 -91.9 -3.618
07:41 1028 30.36 857 25.31 -4.6 23.7 93 -5.5 22.1 -91.9 -3.618
07:42 1028 30.36 857 25.31 -4.6 23.7 93 -5.6 22 -91.9 -3.618
07:43 1028 30.36 857 25.31 -4.6 23.7 93 -5.6 22 -91.9 -3.618
07:44 1028 30.36 857 25.31 -4.7 23.5 93 -5.7 21.8 -91.9 -3.618
07:45 1028 30.36 857 25.31 -4.7 23.5 93 -5.7 21.8 -91.9 -3.618
07:46 1028 30.36 857 25.31 -4.8 23.4 94 -5.7 21.8 -91.9 -3.618
07:47 1028 30.36 857 25.31 -4.8 23.3 93 -5.7 21.7 -91.9 -3.618
07:48 1028 30.36 857 25.31 -4.9 23.3 93 -5.8 21.6 -91.9 -3.618
07:49 1028 30.36 857 25.31 -4.9 23.2 94 -5.8 21.6 -91.9 -3.618
07:50 1028 30.36 857 25.31 -4.9 23.2 94 -5.7 21.7 -91.9 -3.618
07:51 1028 30.36 857 25.31 -4.9 23.2 94 -5.7 21.7 -91.9 -3.618
07:52 1028 30.36 857 25.31 -4.9 23.2 94 -5.7 21.8 -91.9 -3.618
07:53 1028 30.36 857 25.31 -4.8 23.3 94 -5.6 21.9 -91.9 -3.618
07:54 1028 30.36 857 25.31 -4.8 23.3 94 -5.6 21.9 -91.9 -3.618
07:55 1028 30.36 857 25.31 -4.8 23.4 94 -5.6 21.9 -91.9 -3.618
07:56 1028 30.36 857 25.31 -4.8 23.4 94 -5.6 21.9 -91.9 -3.618
07:57 1028 30.36 857 25.31 -4.7 23.5 93 -5.7 21.8 -91.9 -3.618
07:58 1028 30.36 857 25.31 -4.7 23.5 93 -5.7 21.7 -91.9 -3.618
07:59 1028 30.36 857 25.31 -4.7 23.5 93 -5.7 21.7 -91.9 -3.618
08:00 1028 30.36 857 25.31 -4.7 23.5 93 -5.7 21.7 -91.9 -3.618
08:01 1028 30.36 857 25.31 -4.7 23.5 93 -5.7 21.7 -91.9 -3.618
08:02 1028 30.36 857 25.31 -4.7 23.5 93 -5.7 21.7 -91.9 -3.618
08:03 1028 30.36 857 25.31 -4.7 23.5 93 -5.7 21.7 -91.9 -3.618
08:04 1028 30.36 857 25.31 -4.7 23.5 93 -5.7 21.7 -91.9 -3.618
08:05 1028 30.36 857 25.31 -4.8 23.4 93 -5.8 21.6 -91.9 -3.618
08:06 1028 30.36 857 25.31 -4.8 23.3 93 -5.8 21.5 -91.9 -3.618
08:07 1028 30.36 857 25.31 -4.8 23.3 93 -5.8 21.5 -91.9 -3.618
08:08 1028 30.36 857 25.31 -4.9 23.2 93 -5.9 21.3 -91.9 -3.618
08:09 1028 30.36 857 25.31 -4.9 23.1 93 -5.9 21.3 -91.9 -3.618
08:10 1028 30.36 857 25.31 -5 23.1 93 -5.9 21.3 -91.9 -3.618
08:11 1028 30.36 857 25.31 -5 23.1 93 -5.9 21.4 -91.9 -3.618
08:12 1028 30.36 857 25.31 -5 23.1 93 -5.9 21.4 -91.9 -3.618
08:13 1028 30.36 857 25.31 -4.9 23.1 94 -5.8 21.5 -91.9 -3.618
08:14 1028 30.36 857 25.31 -4.9 23.2 94 -5.8 21.6 -91.9 -3.618
08:15 1028 30.36 857 25.31 -4.9 23.2 94 -5.7 21.7 -91.9 -3.618
08:16 1028 30.36 857 25.31 -4.8 23.3 94 -5.7 21.8 -91.9 -3.618
08:17 1028 30.36 857 25.31 -4.8 23.4 94 -5.7 21.8 -91.9 -3.618
08:18 1028 30.36 857 25.31 -4.8 23.4 94 -5.6 21.8 -91.9 -3.618
08:19 1028 30.36 857 25.31 -4.7 23.6 94 -5.6 22 -91.9 -3.618
08:20 1028 30.36 857 25.31 -4.7 23.6 94 -5.5 22.1 -91.9 -3.618
08:21 1028 30.36 857 25.31 -4.5 23.8 94 -5.4 22.3 -91.9 -3.618
08:22 1028 30.36 857 25.31 -4.4 24.1 94 -5.2 22.6 -91.9 -3.618
08:23 1028 30.36 857 25.31 -4.3 24.3 94 -5.1 22.8 -91.9 -3.618
08:24 1028 30.36 857 25.31 -4.1 24.6 93 -5 22.9 -91.8 -3.614
08:25 1028 30.36 857 25.31 -4 24.8 93 -5 23 -91.8 -3.614
08:26 1028 30.36 857 25.31 -3.9 25 92 -5 23.1 -91.8 -3.614
08:27 1028 30.36 857 25.31 -3.8 25.2 92 -4.8 23.3 -91.9 -3.618
08:28 1028 30.36 857 25.31 -3.6 25.5 92 -4.7 23.6 -91.9 -3.618
08:29 1028 30.36 857 25.31 -3.5 25.7 92 -4.7 23.6 -91.9 -3.618
08:30 1028 30.36 857 25.31 -3.4 25.9 91 -4.7 23.6 -91.9 -3.618
08:31 1028 30.36 857 25.31 -3.3 26.1 90 -4.7 23.6 -91.9 -3.618
08:32 1028 30.36 857 25.31 -3.2 26.2 90 -4.6 23.7 -91.9 -3.618
08:33 1028 30.36 857 25.31 -3.1 26.4 89 -4.8 23.4 -91.8 -3.614
08:34 1028 30.36 857 25.31 -3.1 26.4 88 -4.9 23.3 -91.8 -3.614
08:35 1028 30.36 857 25.31 -3 26.6 88 -4.7 23.5 -91.7 -3.61
08:36 1028 30.36 857 25.31 -2.9 26.8 87 -4.8 23.4 -91.7 -3.61
08:37 1028 30.36 857 25.31 -2.8 27 86 -4.7 23.5 -91.6 -3.606
08:38 1028 30.36 857 25.31 -2.6 27.3 85 -4.8 23.3 -91.6 -3.606
08:39 1028 30.36 857 25.31 -2.5 27.4 84 -4.9 23.3 -91.6 -3.606
08:40 1028 30.36 857 25.31 -2.4 27.7 83 -4.8 23.3 -91.6 -3.606
08:41 1028 30.36 857 25.31 -2.3 27.9 82 -5 23 -91.6 -3.606
08:42 1028 30.36 857 25.31 -2.4 27.7 82 -5.1 22.9 -91.6 -3.606
08:43 1028 30.36 857 25.31 -2.4 27.7 82 -5.1 22.8 -91.6 -3.606
08:44 1028 30.36 857 25.31 -2.4 27.7 82 -5 22.9 -91.6 -3.606
08:45 1028 30.36 857 25.31 -2.4 27.7 82 -5 22.9 -91.6 -3.606
08:46 1028 30.36 857 25.31 -2.3 27.8 82 -5.1 22.9 -91.5 -3.602
08:47 1028 30.36 857 25.31 -2.4 27.7 82 -5 22.9 -91.5 -3.602
08:48 1028 30.36 858 25.34 -2.3 27.8 82 -5 23 -91.5 -3.602
08:49 1028 30.36 858 25.34 -2.4 27.7 82 -5.1 22.9 -91.5 -3.602
08:50 1028 30.36 858 25.34 -2.4 27.6 82 -5.1 22.9 -91.5 -3.602
08:51 1028 30.36 858 25.34 -2.5 27.5 83 -4.9 23.1 -91.5 -3.602
08:52 1028 30.36 858 25.34 -2.6 27.3 84 -5 23 -91.5 -3.602
08:53 1028 30.36 858 25.34 -2.7 27.1 85 -5 23 -91.4 -3.598
08:54 1028 30.36 858 25.34 -2.8 26.9 85 -5 23 -91.4 -3.598
08:55 1028 30.36 858 25.34 -2.9 26.7 85 -5 22.9 -91.4 -3.598
08:56 1028 30.36 858 25.34 -2.9 26.7 86 -5 23 -91.4 -3.598
08:57 1028 30.36 858 25.34 -2.9 26.8 86 -4.9 23.2 -91.4 -3.598
08:58 1028 30.36 858 25.34 -2.9 26.7 86 -4.9 23.2 -91.3 -3.594
08:59 1028 30.36 858 25.34 -2.9 26.7 86 -4.9 23.1 -91.3 -3.594
09:00 1028 30.36 858 25.34 -3 26.6 86 -5 22.9 -91.3 -3.594
09:01 1028 30.36 858 25.34 -3 26.6 86 -5.1 22.9 -91.3 -3.594
09:02 1028 30.36 858 25.34 -3 26.7 86 -5 23 -91.3 -3.594
09:03 1028 30.36 858 25.34 -2.9 26.7 86 -5 23.1 -91.3 -3.594
09:04 1028 30.36 858 25.34 -2.9 26.8 87 -4.8 23.3 -91.3 -3.594
09:05 1028 30.36 858 25.34 -2.8 26.9 87 -4.8 23.4 -91.3 -3.594
09:06 1028 30.36 858 25.34 -2.8 27 86 -4.8 23.4 -91.4 -3.598
09:07 1028 30.36 858 25.34 -2.8 27 86 -4.8 23.3 -91.4 -3.598
09:08 1028 30.36 858 25.34 -2.8 27 86 -4.8 23.4 -91.4 -3.598
09:09 1028 30.36 858 25.34 -2.8 27 86 -4.8 23.3 -91.3 -3.594
09:10 1028 30.36 858 25.34 -2.8 26.9 86 -4.8 23.4 -91.3 -3.594
09:11 1028 30.36 858 25.34 -2.8 26.9 86 -4.8 23.4 -91.3 -3.594
09:12 1028 30.36 858 25.34 -2.8 27 87 -4.7 23.5 -91.3 -3.594
09:13 1028 30.36 858 25.34 -2.8 27 87 -4.7 23.6 -91.2 -3.591
09:14 1028 30.36 858 25.34 -2.7 27.2 88 -4.5 23.9 -91.2 -3.591
09:15 1028 30.36 858 25.34 -2.5 27.5 87 -4.4 24.1 -91.3 -3.594
09:16 1028 30.36 857 25.31 -2.3 27.9 87 -4.2 24.5 -91.3 -3.594
09:17 1028 30.36 857 25.31 -2.1 28.3 87 -3.9 24.9 -91.4 -3.598
09:18 1028 30.36 857 25.31 -1.8 28.8 85 -4 24.9 -91.4 -3.598
09:19 1028 30.36 857 25.31 -1.5 29.2 83 -4.1 24.6 -91.4 -3.598
09:20 1028 30.36 857 25.31 -1.4 29.4 80 -4.4 24 -91.4 -3.598
09:21 1028 30.36 857 25.31 -1.3 29.6 79 -4.6 23.8 -91.4 -3.598
09:22 1028 30.36 857 25.31 -1.2 29.8 78 -4.6 23.8 -91.3 -3.594
09:23 1028 30.36 857 25.31 -1.4 29.6 78 -4.7 23.6 -91.3 -3.594
09:24 1028 30.36 857 25.31 -1.4 29.5 80 -4.4 24.2 -91.3 -3.594
09:25 1028 30.36 857 25.31 -1.3 29.7 81 -4.1 24.6 -91.2 -3.591
09:26 1028 30.36 857 25.31 -1.2 29.8 81 -4.1 24.6 -91.2 -3.591
09:27 1028 30.36 857 25.31 -1.3 29.7 79 -4.5 23.9 -91.2 -3.591
09:28 1028 30.36 857 25.31 -1.3 29.7 77 -4.8 23.3 -91.1 -3.587
09:29 1028 30.36 857 25.31 -1.3 29.6 78 -4.7 23.6 -91.1 -3.587
09:30 1028 30.36 857 25.31 -1.3 29.6 76 -5 23.1 -91.1 -3.587
09:31 1028 30.36 857 25.31 -1.4 29.5 76 -5 23 -91.1 -3.587
09:32 1028 30.36 857 25.31 -1.4 29.4 78 -4.8 23.4 -91.1 -3.587
09:33 1028 30.36 857 25.31 -1.5 29.3 78 -4.9 23.2 -91.1 -3.587
09:34 1028 30.36 857 25.31 -1.6 29.2 76 -5.3 22.5 -91 -3.583
09:35 1028 30.36 857 25.31 -1.6 29.1 79 -4.8 23.3 -91 -3.583
09:36 1028 30.36 857 25.31 -1.6 29.1 75 -5.4 22.2 -91 -3.583
09:37 1028 30.36 857 25.31 -1.6 29.1 76 -5.3 22.4 -91 -3.583
09:38 1028 30.36 857 25.31 -1.6 29.1 77 -5.1 22.7 -91 -3.583
09:39 1028 30.36 857 25.31 -1.6 29.1 74 -5.7 21.8 -91 -3.583
09:40 1028 30.36 857 25.31 -1.7 29 74 -5.7 21.7 -91 -3.583
09:41 1028 30.36 857 25.31 -1.7 29 77 -5.2 22.6 -90.9 -3.579
09:42 1028 30.36 857 25.31 -1.7 29 74 -5.7 21.8 -90.9 -3.579
09:43 1028 30.36 857 25.31 -1.6 29 78 -5 23 -90.9 -3.579
09:44 1028 30.36 857 25.31 -1.6 29.1 76 -5.2 22.6 -90.9 -3.579
09:45 1028 30.36 857 25.31 -1.5 29.3 74 -5.6 21.9 -90.9 -3.579
09:46 1028 30.36 857 25.31 -1.5 29.3 77 -4.9 23.1 -90.9 -3.579
09:47 1028 30.36 857 25.31 -1.4 29.4 77 -5 23 -90.9 -3.579
09:48 1028 30.36 857 25.31 -1.4 29.5 76 -5 23 -90.9 -3.579
09:49 1028 30.36 857 25.31 -1.4 29.6 74 -5.4 22.2 -90.9 -3.579
09:50 1028 30.36 857 25.31 -1.3 29.7 78 -4.7 23.5 -90.9 -3.579
09:51 1028 30.36 857 25.31 -1.2 29.8 76 -4.9 23.1 -90.8 -3.575
09:52 1028 30.36 857 25.31 -1.2 29.9 76 -4.8 23.4 -90.8 -3.575
09:53 1028 30.36 857 25.31 -1 30.1 78 -4.5 23.9 -90.8 -3.575
09:54 1028 30.36 857 25.31 -1 30.2 73 -5.3 22.4 -90.7 -3.571
09:55 1028 30.36 857 25.31 -1 30.2 79 -4.3 24.3 -90.7 -3.571
09:56 1028 30.36 857 25.31 -0.9 30.4 73 -5.2 22.7 -90.8 -3.575
09:57 1028 30.36 857 25.31 -0.9 30.4 73 -5.2 22.7 -90.8 -3.575
09:58 1028 30.36 857 25.31 -0.9 30.4 73 -5.1 22.8 -90.8 -3.575
09:59 1028 30.36 857 25.31 -0.9 30.4 68 -6 21.2 -90.8 -3.575
10:00 1028 30.36 857 25.31 -0.9 30.5 73 -5.2 22.7 -90.8 -3.575
10:01 1028 30.36 857 25.31 -0.9 30.4 69 -5.9 21.5 -90.8 -3.575
10:02 1028 30.36 857 25.31 -0.9 30.5 70 -5.6 21.9 -90.7 -3.571
10:03 1028 30.36 857 25.31 -0.8 30.5 72 -5.3 22.5 -90.7 -3.571
10:04 1028 30.36 857 25.31 -0.8 30.6 71 -5.4 22.2 -90.6 -3.567
10:05 1028 30.36 857 25.31 -0.7 30.7 70 -5.6 22 -90.6 -3.567
10:06 1028 30.36 857 25.31 -0.7 30.7 69 -5.8 21.6 -90.6 -3.567
10:07 1028 30.36 857 25.31 -0.8 30.6 74 -4.9 23.2 -90.6 -3.567
10:08 1028 30.36 857 25.31 -0.7 30.7 71 -5.4 22.3 -90.5 -3.563
10:09 1028 30.36 857 25.31 -0.7 30.7 70 -5.5 22.1 -90.5 -3.563
10:10 1028 30.36 857 25.31 -0.7 30.7 73 -4.9 23.2 -90.5 -3.563
10:11 1028 30.36 857 25.31 -0.6 30.9 73 -4.9 23.1 -90.5 -3.563
10:12 1028 30.36 857 25.31 -0.6 31 70 -5.4 22.3 -90.5 -3.563
10:13 1028 30.36 857 25.31 -0.6 30.9 72 -5.1 22.8 -90.5 -3.563
10:14 1028 30.36 857 25.31 -0.6 31 73 -4.9 23.3 -90.5 -3.563
10:15 1028 30.36 857 25.31 -0.5 31 74 -4.6 23.7 -90.5 -3.563
10:16 1028 30.36 857 25.31 -0.4 31.2 72 -4.8 23.4 -90.5 -3.563
10:17 1028 30.36 857 25.31 -0.4 31.3 74 -4.5 23.8 -90.4 -3.559
10:18 1028 30.36 857 25.31 -0.4 31.3 72 -4.8 23.4 -90.4 -3.559
10:19 1028 30.36 857 25.31 -0.4 31.4 73 -4.7 23.6 -90.4 -3.559
10:20 1028 30.36 857 25.31 -0.4 31.4 71 -4.9 23.1 -90.4 -3.559
10:21 1028 30.36 857 25.31 -0.4 31.3 71 -5 23 -90.4 -3.559
10:22 1028 30.36 857 25.31 -0.3 31.5 72 -4.7 23.5 -90.4 -3.559
10:23 1028 30.36 857 25.31 -0.2 31.6 72 -4.6 23.7 -90.4 -3.559
10:24 1028 30.36 857 25.31 -0.2 31.7 71 -4.9 23.2 -90.4 -3.559
10:25 1028 30.36 857 25.31 -0.2 31.7 71 -4.8 23.4 -90.4 -3.559
10:26 1028 30.36 857 25.31 -0.2 31.6 71 -4.9 23.2 -90.4 -3.559
10:27 1028 30.36 857 25.31 -0.2 31.6 75 -4.2 24.4 -90.4 -3.559
10:28 1028 30.36 857 25.31 -0.2 31.7 72 -4.6 23.7 -90.4 -3.559
10:29 1028 30.36 857 25.31 -0.2 31.6 72 -4.7 23.5 -90.4 -3.559
10:30 1028 30.36 857 25.31 -0.1 31.7 74 -4.2 24.5 -90.4 -3.559
10:31 1028 30.36 857 25.31 0 32 72 -4.5 23.9 -90.4 -3.559
10:32 1028 30.36 857 25.31 0.2 32.3 69 -4.9 23.1 -90.4 -3.559
10:33 1028 30.36 857 25.31 0.1 32.3 69 -4.8 23.3 -90.4 -3.559
10:34 1028 30.36 857 25.31 0.1 32.2 67 -5.2 22.6 -90.3 -3.555
10:35 1028 30.36 857 25.31 0.1 32.2 67 -5.4 22.3 -90.3 -3.555
10:36 1028 30.36 857 25.31 0.2 32.4 65 -5.6 22 -90.2 -3.551
10:37 1028 30.36 857 25.31 0.3 32.6 66 -5.3 22.4 -90.2 -3.551
10:38 1028 30.36 857 25.31 0.3 32.6 63 -5.8 21.5 -90.2 -3.551
10:39 1028 30.36 857 25.31 0.3 32.6 62 -6.2 20.8 -90.1 -3.547
10:40 1028 30.36 857 25.31 0.3 32.5 64 -5.7 21.7 -90.1 -3.547
10:41 1028 30.36 857 25.31 0.3 32.6 63 -5.9 21.3 -90.1 -3.547
10:42 1028 30.36 857 25.31 0.3 32.6 63 -6 21.3 -90 -3.543
10:43 1028 30.36 857 25.31 0.4 32.7 65 -5.5 22.1 -90 -3.543
10:44 1028 30.36 857 25.31 0.4 32.8 60 -6.5 20.4 -90 -3.543
10:45 1028 30.36 857 25.31 0.4 32.8 66 -5.1 22.7 -90 -3.543
10:46 1028 30.36 857 25.31 0.6 33 61 -6.1 21.1 -90 -3.543
10:47 1028 30.36 857 25.31 0.6 33 61 -6.1 21.1 -90 -3.543
10:48 1028 30.36 857 25.31 0.6 33 62 -5.9 21.3 -90 -3.543
10:49 1028 30.36 857 25.31 0.5 33 61 -6.1 21.1 -89.9 -3.539
10:50 1028 30.36 857 25.31 0.6 33 66 -5 23 -89.9 -3.539
10:51 1028 30.36 857 25.31 0.7 33.3 58 -6.7 20 -89.9 -3.539
10:52 1028 30.36 857 25.31 0.7 33.3 56 -7 19.4 -89.9 -3.539
10:53 1028 30.36 857 25.31 0.6 33.1 57 -6.9 19.5 -89.8 -3.535
10:54 1028 30.36 857 25.31 0.5 32.9 62 -5.9 21.4 -89.8 -3.535
10:55 1028 30.36 857 25.31 0.5 32.9 60 -6.4 20.5 -89.8 -3.535
10:56 1028 30.36 857 25.31 0.5 32.9 62 -6 21.3 -89.8 -3.535
10:57 1028 30.36 857 25.31 0.6 33.1 61 -6.1 21 -89.8 -3.535
10:58 1028 30.36 857 25.31 0.8 33.5 61 -5.8 21.5 -89.8 -3.535
10:59 1028 30.36 857 25.31 1.1 34 57 -6.6 20.2 -89.7 -3.531
11:00 1028 30.36 857 25.31 1.2 34.1 56 -6.7 19.9 -89.7 -3.531
11:01 1028 30.36 857 25.31 1.4 34.5 59 -5.8 21.5 -89.7 -3.531
11:02 1028 30.36 857 25.31 1.6 34.8 56 -6.3 20.6 -89.7 -3.531
11:03 1028 30.36 857 25.31 1.6 34.9 52 -7.3 18.9 -89.6 -3.528
11:04 1028 30.36 857 25.31 1.4 34.6 57 -6.2 20.8 -89.6 -3.528
11:05 1028 30.36 857 25.31 1.4 34.4 59 -5.7 21.7 -89.6 -3.528
11:06 1028 30.36 857 25.31 1.5 34.6 57 -6 21.1 -89.6 -3.528
11:07 1028 30.36 857 25.31 1.4 34.5 56 -6.5 20.3 -89.6 -3.528
11:08 1028 30.36 857 25.31 1.3 34.3 55 -6.8 19.7 -89.6 -3.528
11:09 1028 30.36 857 25.31 1.1 34 55 -6.9 19.6 -89.5 -3.524
11:10 1028 30.36 857 25.31 1 33.9 57 -6.6 20 -89.5 -3.524
11:11 1028 30.36 857 25.31 1 33.8 63 -5.3 22.5 -89.5 -3.524
11:12 1028 30.36 857 25.31 1.1 34 57 -6.6 20.2 -89.5 -3.524
11:13 1028 30.36 857 25.31 1.1 34.1 56 -6.6 20.1 -89.5 -3.524
11:14 1028 30.36 857 25.31 1.2 34.1 60 -5.7 21.8 -89.5 -3.524
11:15 1028 30.36 857 25.31 1.2 34.1 59 -5.9 21.4 -89.5 -3.524
11:16 1028 30.36 857 25.31 1.1 34 60 -5.8 21.6 -89.5 -3.524
11:17 1028 30.36 857 25.31 1.1 34 59 -6 21.2 -89.5 -3.524
11:18 1028 30.36 857 25.31 1 33.8 58 -6.5 20.4 -89.5 -3.524
11:19 1028 30.36 857 25.31 1 33.9 59 -6.1 20.9 -89.5 -3.524
11:20 1028 30.36 857 25.31 1.1 34.1 57 -6.4 20.5 -89.5 -3.524
11:21 1028 30.36 857 25.31 1.2 34.1 54 -7 19.3 -89.5 -3.524
11:22 1028 30.36 857 25.31 1.1 34 56 -6.8 19.8 -89.4 -3.52
11:23 1028 30.36 857 25.31 1.1 34 57 -6.6 20.2 -89.5 -3.524
11:24 1028 30.36 857 25.31 1.1 33.9 59 -6 21.1 -89.4 -3.52
11:25 1028 30.36 857 25.31 1 33.8 60 -5.8 21.5 -89.4 -3.52
11:26 1028 30.36 857 25.31 1 33.8 60 -5.9 21.4 -89.4 -3.52
11:27 1028 30.36 857 25.31 1.2 34.2 57 -6.5 20.4 -89.4 -3.52
11:28 1028 30.36 857 25.31 1.2 34.1 60 -5.8 21.5 -89.3 -3.516
11:29 1027 30.33 857 25.31 1.2 34.2 59 -6 21.2 -89.3 -3.516
11:30 1027 30.33 857 25.31 1.3 34.3 59 -5.9 21.4 -89.3 -3.516
11:31 1027 30.33 857 25.31 1.3 34.3 61 -5.5 22.1 -89.3 -3.516
11:32 1027 30.33 857 25.31 1.5 34.7 57 -6.1 21 -89.3 -3.516
11:33 1027 30.33 857 25.31 1.5 34.7 57 -6.2 20.8 -89.2 -3.512
11:34 1027 30.33 857 25.31 1.6 34.9 56 -6.2 20.8 -89.3 -3.516
11:35 1027 30.33 857 25.31 1.5 34.7 58 -5.9 21.4 -89.2 -3.512
11:36 1027 30.33 857 25.31 1.4 34.4 59 -5.7 21.7 -89.3 -3.516
11:37 1027 30.33 857 25.31 1.3 34.3 58 -6 21.1 -89.3 -3.516
11:38 1027 30.33 857 25.31 1.3 34.3 56 -6.6 20.2 -89.2 -3.512
11:39 1027 30.33 857 25.31 1.2 34.2 58 -6.1 21 -89.2 -3.512
11:40 1027 30.33 856 25.28 1.2 34.2 60 -5.7 21.8 -89.2 -3.512
11:41 1027 30.33 856 25.28 1.2 34.1 58 -6.1 21 -89.2 -3.512
11:42 1027 30.33 856 25.28 1.1 34 59 -6 21.3 -89.2 -3.512
11:43 1027 30.33 856 25.28 1.1 34 61 -5.5 22.1 -89.2 -3.512
11:44 1027 30.33 856 25.28 1.2 34.1 60 -5.8 21.6 -89.2 -3.512
11:45 1027 30.33 856 25.28 1.3 34.3 54 -7 19.3 -89.3 -3.516
11:46 1027 30.33 856 25.28 1.3 34.3 53 -7.3 18.9 -89.3 -3.516
11:47 1027 30.33 856 25.28 1.5 34.7 56 -6.4 20.4 -89.3 -3.516
11:48 1027 30.33 856 25.28 1.7 35.1 56 -6.2 20.9 -89.3 -3.516
11:49 1027 30.33 856 25.28 1.7 35.1 54 -6.5 20.2 -89.2 -3.512
11:50 1027 30.33 856 25.28 1.7 35 55 -6.5 20.3 -89.2 -3.512
11:51 1027 30.33 856 25.28 1.6 34.9 56 -6.4 20.6 -89.2 -3.512
11:52 1027 30.33 856 25.28 1.6 34.9 53 -7 19.4 -89.2 -3.512
11:53 1027 30.33 856 25.28 1.4 34.6 52 -7.3 18.8 -89.2 -3.512
11:54 1027 30.33 856 25.28 1.4 34.4 54 -6.9 19.6 -89.1 -3.508
11:55 1027 30.33 856 25.28 1.5 34.7 53 -7 19.4 -89.2 -3.512
11:56 1027 30.33 856 25.28 1.6 34.8 54 -6.7 19.9 -89.2 -3.512
11:57 1027 30.33 856 25.28 1.6 34.9 54 -6.8 19.7 -89.3 -3.516
11:58 1027 30.33 856 25.28 1.7 35.1 54 -6.6 20.1 -89.3 -3.516
11:59 1027 30.33 856 25.28 1.7 35.1 56 -6.1 21 -89.3 -3.516
12:00 1027 30.33 856 25.28 1.8 35.2 52 -6.9 19.5 -89.3 -3.516
12:01 1027 30.33 856 25.28 1.8 35.2 56 -6.1 21 -89.2 -3.512
12:02 1027 30.33 856 25.28 1.9 35.5 56 -5.8 21.5 -89.2 -3.512
12:03 1027 30.33 856 25.28 2 35.6 51 -7 19.4 -89.2 -3.512
12:04 1027 30.33 856 25.28 1.8 35.3 52 -7 19.3 -89.1 -3.508
12:05 1027 30.33 856 25.28 1.7 35.1 54 -6.7 20 -89.1 -3.508
12:06 1027 30.33 856 25.28 1.7 35.1 55 -6.5 20.3 -89 -3.504
12:07 1027 30.33 856 25.28 1.9 35.4 49 -7.8 17.9 -89.1 -3.508
12:08 1027 30.33 856 25.28 1.8 35.2 51 -7.3 18.8 -89.1 -3.508
12:09 1027 30.33 856 25.28 1.8 35.3 54 -6.4 20.5 -89.1 -3.508
12:10 1027 30.33 856 25.28 2 35.7 55 -6.1 21 -89.2 -3.512
12:11 1027 30.33 856 25.28 2.3 36.2 49 -7.4 18.8 -89.2 -3.512
12:12 1027 30.33 856 25.28 2.4 36.3 50 -7 19.4 -89.2 -3.512
12:13 1027 30.33 856 25.28 2.3 36.1 49 -7.4 18.7 -89.2 -3.512
12:14 1027 30.33 856 25.28 2.1 35.8 49 -7.5 18.6 -89.2 -3.512
12:15 1027 30.33 856 25.28 2 35.7 51 -7.1 19.1 -89.2 -3.512
12:16 1027 30.33 856 25.28 2.1 35.7 49 -7.6 18.3 -89.2 -3.512
12:17 1027 30.33 856 25.28 2 35.7 46 -8.3 17.1 -89.1 -3.508
12:18 1027 30.33 856 25.28 2 35.6 46 -8.3 17 -89.1 -3.508
12:19 1027 30.33 856 25.28 1.9 35.4 50 -7.5 18.5 -89.1 -3.508
12:20 1027 30.33 856 25.28 1.9 35.4 50 -7.6 18.4 -89 -3.504
12:21 1027 30.33 856 25.28 1.9 35.5 48 -7.8 17.9 -89 -3.504
12:22 1027 30.33 856 25.28 1.9 35.5 51 -7.3 18.9 -89 -3.504
12:23 1027 30.33 856 25.28 2 35.5 47 -8.1 17.3 -89 -3.504
12:24 1027 30.33 856 25.28 1.9 35.4 47 -8.3 17.1 -88.9 -3.5
12:25 1027 30.33 856 25.28 1.9 35.4 49 -7.8 17.9 -88.9 -3.5
12:26 1027 30.33 856 25.28 2 35.6 50 -7.4 18.7 -88.9 -3.5
12:27 1027 30.33 856 25.28 2.1 35.8 51 -7.1 19.2 -88.9 -3.5
12:28 1027 30.33 856 25.28 2.3 36.1 47 -7.8 17.9 -88.9 -3.5
12:29 1027 30.33 856 25.28 2.2 35.9 50 -7.3 18.8 -88.9 -3.5
12:30 1027 30.33 856 25.28 2.1 35.8 48 -7.7 18.1 -88.8 -3.496
12:31 1027 30.33 856 25.28 2 35.6 50 -7.5 18.6 -88.8 -3.496
12:32 1027 30.33 856 25.28 2 35.7 48 -7.8 18 -88.8 -3.496
12:33 1027 30.33 856 25.28 2 35.6 48 -7.9 17.8 -88.8 -3.496
12:34 1027 30.33 856 25.28 2.1 35.7 48 -7.7 18.1 -88.7 -3.492
12:35 1027 30.33 856 25.28 2.1 35.8 49 -7.5 18.5 -88.7 -3.492
12:36 1027 30.33 856 25.28 2.2 35.9 50 -7.3 18.8 -88.7 -3.492
12:37 1027 30.33 856 25.28 2.4 36.2 47 -7.8 18 -88.7 -3.492
12:38 1027 30.33 856 25.28 2.5 36.4 50 -6.8 19.7 -88.8 -3.496
12:39 1027 30.33 856 25.28 2.6 36.7 49 -7.1 19.2 -88.8 -3.496
12:40 1027 30.33 856 25.28 2.6 36.8 47 -7.7 18.2 -88.8 -3.496
12:41 1027 30.33 856 25.28 2.5 36.5 46 -8 17.5 -88.9 -3.5
12:42 1027 30.33 856 25.28 2.3 36.2 48 -7.6 18.4 -88.9 -3.5
12:43 1026 30.3 856 25.28 2.2 36 48 -7.6 18.3 -88.9 -3.5
12:44 1026 30.3 856 25.28 2.2 36 48 -7.7 18.1 -88.9 -3.5
12:45 1026 30.3 856 25.28 2.3 36.1 51 -6.9 19.5 -88.9 -3.5
12:46 1026 30.3 856 25.28 2.4 36.3 48 -7.6 18.3 -88.9 -3.5
12:47 1026 30.3 856 25.28 2.3 36.1 50 -7 19.4 -89 -3.504
12:48 1026 30.3 856 25.28 2.2 36 47 -8 17.7 -89 -3.504
12:49 1026 30.3 856 25.28 2.1 35.7 51 -7.1 19.2 -89 -3.504
12:50 1026 30.3 856 25.28 2.2 35.9 50 -7.1 19.2 -89 -3.504
12:51 1026 30.3 856 25.28 2.3 36.2 47 -7.9 17.8 -89 -3.504
12:52 1026 30.3 856 25.28 2.2 35.9 48 -7.7 18.1 -89 -3.504
12:53 1026 30.3 856 25.28 2.1 35.8 49 -7.6 18.3 -89 -3.504
12:54 1026 30.3 855 25.25 2.3 36.1 47 -7.8 17.9 -89 -3.504
12:55 1026 30.3 855 25.25 2.4 36.2 47 -7.9 17.8 -88.9 -3.5
12:56 1026 30.3 855 25.25 2.3 36.1 48 -7.6 18.3 -88.9 -3.5
12:57 1026 30.3 855 25.25 2.3 36.1 50 -7.1 19.3 -88.9 -3.5
12:58 1026 30.3 855 25.25 2.3 36.1 51 -6.8 19.8 -88.9 -3.5
12:59 1026 30.3 855 25.25 2.4 36.2 46 -8.1 17.5 -88.9 -3.5
13:00 1026 30.3 855 25.25 2.3 36.2 48 -7.7 18.2 -88.9 -3.5
13:01 1026 30.3 855 25.25 2.4 36.3 48 -7.6 18.4 -88.8 -3.496
13:02 1026 30.3 855 25.25 2.5 36.5 48 -7.3 18.8 -88.8 -3.496
13:03 1026 30.3 855 25.25 2.6 36.7 50 -6.8 19.7 -88.8 -3.496
13:04 1026 30.3 855 25.25 2.8 37 47 -7.4 18.7 -88.9 -3.5
13:05 1026 30.3 855 25.25 2.6 36.7 49 -7.1 19.2 -88.9 -3.5
13:06 1026 30.3 855 25.25 2.5 36.5 49 -7.1 19.2 -88.9 -3.5
13:07 1026 30.3 855 25.25 2.4 36.3 46 -8 17.5 -88.8 -3.496
13:08 1026 30.3 855 25.25 2.3 36.2 47 -8 17.7 -88.7 -3.492
13:09 1026 30.3 855 25.25 2.3 36.1 48 -7.7 18.1 -88.7 -3.492
13:10 1026 30.3 855 25.25 2.4 36.3 49 -7.3 18.8 -88.6 -3.488
13:11 1026 30.3 855 25.25 2.5 36.5 48 -7.4 18.8 -88.5 -3.484
13:12 1026 30.3 855 25.25 2.6 36.7 47 -7.6 18.4 -88.5 -3.484
13:13 1026 30.3 855 25.25 2.7 36.9 49 -6.8 19.7 -88.5 -3.484
13:14 1026 30.3 855 25.25 2.8 37 44 -8.2 17.3 -88.5 -3.484
13:15 1026 30.3 855 25.25 2.7 36.8 45 -8 17.5 -88.5 -3.484
13:16 1026 30.3 855 25.25 2.6 36.7 46 -7.9 17.8 -88.5 -3.484
13:17 1026 30.3 855 25.25 2.6 36.8 48 -7.4 18.8 -88.5 -3.484
13:18 1026 30.3 855 25.25 2.8 37 50 -6.7 20 -88.5 -3.484
13:19 1026 30.3 855 25.25 2.9 37.2 45 -8 17.6 -88.5 -3.484
13:20 1026 30.3 855 25.25 2.7 36.9 50 -6.8 19.8 -88.4 -3.48
13:21 1026 30.3 855 25.25 2.8 37.1 48 -7.2 19.1 -88.4 -3.48
13:22 1026 30.3 855 25.25 2.8 37.1 44 -8.3 17 -88.4 -3.48
13:23 1026 30.3 855 25.25 2.8 37.1 46 -7.8 18 -88.5 -3.484
13:24 1026 30.3 855 25.25 2.9 37.2 45 -8 17.6 -88.5 -3.484
13:25 1026 30.3 855 25.25 2.8 37.1 46 -7.7 18.1 -88.5 -3.484
13:26 1026 30.3 855 25.25 2.8 37 46 -7.8 17.9 -88.5 -3.484
13:27 1026 30.3 855 25.25 2.8 37 46 -7.7 18.1 -88.4 -3.48
13:28 1026 30.3 855 25.25 2.9 37.2 44 -8.1 17.4 -88.4 -3.48
13:29 1026 30.3 855 25.25 2.9 37.2 44 -8.1 17.4 -88.4 -3.48
13:30 1026 30.3 855 25.25 2.7 36.9 46 -7.8 17.9 -88.4 -3.48
13:31 1026 30.3 855 25.25 2.7 36.8 44 -8.3 17.1 -88.4 -3.48
13:32 1026 30.3 855 25.25 2.6 36.7 43 -8.6 16.5 -88.4 -3.48
13:33 1026 30.3 855 25.25 2.5 36.5 44 -8.5 16.6 -88.4 -3.48
13:34 1026 30.3 855 25.25 2.5 36.5 45 -8.3 17.1 -88.4 -3.48
13:35 1026 30.3 855 25.25 2.5 36.4 47 -7.7 18.2 -88.4 -3.48
13:36 1026 30.3 855 25.25 2.5 36.6 46 -7.9 17.7 -88.4 -3.48
13:37 1026 30.3 855 25.25 2.6 36.7 48 -7.5 18.6 -88.4 -3.48
13:38 1026 30.3 855 25.25 2.8 37 49 -6.8 19.7 -88.4 -3.48
13:39 1026 30.3 855 25.25 2.9 37.2 42 -8.7 16.4 -88.4 -3.48
13:40 1026 30.3 855 25.25 2.8 37.1 44 -8.2 17.3 -88.4 -3.48
13:41 1026 30.3 855 25.25 2.9 37.2 45 -7.8 18 -88.5 -3.484
13:42 1025 30.27 855 25.25 3 37.4 46 -7.4 18.6 -88.5 -3.484
13:43 1025 30.27 855 25.25 3.1 37.7 45 -7.7 18.1 -88.6 -3.488
13:44 1025 30.27 855 25.25 3.3 37.9 44 -7.8 17.9 -88.7 -3.492
13:45 1025 30.27 855 25.25 3.3 37.9 43 -8 17.6 -88.7 -3.492
13:46 1025 30.27 854 25.22 3.3 38 44 -7.9 17.8 -88.7 -3.492
13:47 1025 30.27 854 25.22 3.3 38 43 -8.2 17.3 -88.8 -3.496
13:48 1025 30.27 854 25.22 3.3 37.9 44 -7.8 18 -88.8 -3.496
13:49 1025 30.27 854 25.22 3.2 37.7 42 -8.6 16.4 -88.8 -3.496
13:50 1025 30.27 854 25.22 3 37.3 43 -8.5 16.7 -88.8 -3.496
13:51 1025 30.27 854 25.22 2.9 37.3 42 -8.8 16.2 -88.7 -3.492
13:52 1025 30.27 854 25.22 3 37.4 45 -7.9 17.9 -88.7 -3.492
13:53 1025 30.27 854 25.22 3.1 37.7 42 -8.5 16.7 -88.7 -3.492
13:54 1025 30.27 854 25.22 3.2 37.7 42 -8.4 16.8 -88.6 -3.488
13:55 1025 30.27 854 25.22 3.3 37.9 43 -8.2 17.2 -88.6 -3.488
13:56 1025 30.27 854 25.22 3.3 38 42 -8.5 16.7 -88.6 -3.488
13:57 1025 30.27 854 25.22 3.3 38 44 -7.9 17.7 -88.7 -3.492
13:58 1025 30.27 854 25.22 3.4 38.1 41 -8.5 16.7 -88.7 -3.492
13:59 1025 30.27 854 25.22 3.2 37.8 42 -8.5 16.8 -88.8 -3.496
14:00 1025 30.27 854 25.22 3.1 37.6 45 -7.7 18.1 -88.8 -3.496
14:01 1025 30.27 854 25.22 3.2 37.7 45 -7.6 18.3 -88.8 -3.496
14:02 1025 30.27 854 25.22 3.3 38 42 -8.4 16.9 -88.8 -3.496
14:03 1025 30.27 854 25.22 3.5 38.3 43 -7.9 17.8 -88.8 -3.496
14:04 1025 30.27 854 25.22 3.6 38.6 38 -9.5 14.8 -88.8 -3.496
14:05 1025 30.27 854 25.22 3.4 38.2 38 -9.4 15 -88.8 -3.496
14:06 1025 30.27 854 25.22 3.3 37.9 42 -8.4 16.9 -88.8 -3.496
14:07 1025 30.27 854 25.22 3.3 38 40 -9.2 15.5 -88.8 -3.496
14:08 1025 30.27 854 25.22 3.3 37.9 42 -8.5 16.6 -88.8 -3.496
14:09 1025 30.27 854 25.22 3.2 37.8 40 -9.2 15.4 -88.8 -3.496
14:10 1025 30.27 854 25.22 3.1 37.7 42 -8.5 16.7 -88.8 -3.496
14:11 1025 30.27 854 25.22 3.1 37.7 41 -8.9 16 -88.8 -3.496
14:12 1025 30.27 854 25.22 3.2 37.7 39 -9.4 15.1 -88.8 -3.496
14:13 1025 30.27 854 25.22 3.2 37.7 40 -9 15.8 -88.8 -3.496
14:14 1025 30.27 854 25.22 3.2 37.7 39 -9.4 15.1 -88.8 -3.496
14:15 1025 30.27 854 25.22 3.3 37.9 42 -8.5 16.7 -88.8 -3.496
14:16 1025 30.27 854 25.22 3.4 38.2 41 -8.7 16.3 -88.8 -3.496
14:17 1025 30.27 854 25.22 3.5 38.3 38 -9.4 15 -88.8 -3.496
14:18 1025 30.27 854 25.22 3.5 38.3 39 -9.2 15.5 -88.8 -3.496
14:19 1025 30.27 854 25.22 3.5 38.4 40 -8.7 16.3 -88.8 -3.496
14:20 1025 30.27 854 25.22 3.5 38.2 38 -9.4 15 -88.7 -3.492
14:21 1025 30.27 854 25.22 3.4 38.1 40 -9 15.9 -88.6 -3.488
14:22 1025 30.27 854 25.22 3.4 38.1 40 -8.8 16.2 -88.6 -3.488
14:23 1025 30.27 854 25.22 3.5 38.3 39 -9.2 15.5 -88.4 -3.48
14:24 1025 30.27 854 25.22 3.5 38.3 40 -8.9 16 -88.4 -3.48
14:25 1025 30.27 854 25.22 3.4 38.2 39 -9.4 15.1 -88.4 -3.48
14:26 1025 30.27 854 25.22 3.4 38.1 39 -9.4 15.1 -88.4 -3.48
14:27 1025 30.27 854 25.22 3.3 37.9 38 -9.6 14.7 -88.4 -3.48
14:28 1025 30.27 854 25.22 3.3 37.9 40 -9.2 15.4 -88.4 -3.48
14:29 1025 30.27 854 25.22 3.3 38 40 -8.9 15.9 -88.4 -3.48
14:30 1025 30.27 854 25.22 3.3 37.9 39 -9.4 15.1 -88.4 -3.48
14:31 1025 30.27 854 25.22 3.2 37.8 39 -9.6 14.8 -88.4 -3.48
14:32 1025 30.27 854 25.22 3.2 37.8 39 -9.4 15.1 -88.3 -3.476
14:33 1025 30.27 854 25.22 3.3 38 40 -9.1 15.6 -88.3 -3.476
14:34 1025 30.27 854 25.22 3.5 38.3 38 -9.6 14.8 -88.2 -3.472
14:35 1025 30.27 854 25.22 3.5 38.3 41 -8.6 16.4 -88.2 -3.472
14:36 1024 30.24 854 25.22 3.6 38.5 38 -9.6 14.8 -88.2 -3.472
14:37 1024 30.24 854 25.22 3.6 38.4 39 -9.2 15.4 -88.2 -3.472
14:38 1024 30.24 854 25.22 3.4 38.2 39 -9.3 15.2 -88.2 -3.472
14:39 1024 30.24 854 25.22 3.3 38 39 -9.2 15.4 -88.2 -3.472
14:40 1024 30.24 854 25.22 3.3 37.9 38 -9.6 14.7 -88.2 -3.472
14:41 1024 30.24 854 25.22 3.3 37.9 38 -9.7 14.5 -88.2 -3.472
14:42 1024 30.24 854 25.22 3.4 38.1 39 -9.4 15.1 -88.3 -3.476
14:43 1024 30.24 854 25.22 3.6 38.4 39 -9.1 15.7 -88.4 -3.48
14:44 1024 30.24 854 25.22 3.7 38.7 41 -8.4 16.9 -88.4 -3.48
14:45 1024 30.24 854 25.22 3.8 38.9 37 -9.5 14.9 -88.5 -3.484
14:46 1024 30.24 854 25.22 3.8 38.8 40 -8.6 16.5 -88.4 -3.48
14:47 1024 30.24 854 25.22 3.8 38.9 39 -8.8 16.1 -88.4 -3.48
14:48 1024 30.24 854 25.22 3.7 38.7 41 -8.3 17.1 -88.3 -3.476
14:49 1024 30.24 854 25.22 3.6 38.5 38 -9.4 15.2 -88.2 -3.472
14:50 1024 30.24 854 25.22 3.6 38.4 39 -9.3 15.3 -88.2 -3.472
14:51 1024 30.24 854 25.22 3.5 38.4 40 -8.7 16.3 -88.2 -3.472
14:52 1024 30.24 854 25.22 3.6 38.4 39 -9.1 15.6 -88.2 -3.472
14:53 1024 30.24 853 25.19 3.7 38.6 39 -9 15.8 -88.2 -3.472
14:54 1024 30.24 853 25.19 3.7 38.6 36 -9.9 14.2 -88.2 -3.472
14:55 1024 30.24 853 25.19 3.6 38.5 37 -9.8 14.3 -88.2 -3.472
14:56 1024 30.24 853 25.19 3.6 38.5 37 -9.9 14.1 -88.2 -3.472
14:57 1024 30.24 853 25.19 3.5 38.3 40 -9 15.8 -88.2 -3.472
14:58 1024 30.24 853 25.19 3.6 38.5 38 -9.3 15.2 -88.2 -3.472
14:59 1024 30.24 853 25.19 3.6 38.4 40 -8.7 16.3 -88.1 -3.469
15:00 1024 30.24 853 25.19 3.6 38.5 36 -10.1 13.8 -88.2 -3.472
15:01 1024 30.24 853 25.19 3.6 38.5 37 -9.8 14.4 -88.2 -3.472
15:02 1024 30.24 853 25.19 3.7 38.7 39 -9.1 15.6 -88.2 -3.472
15:03 1024 30.24 853 25.19 4 39.1 37 -9.5 14.9 -88.3 -3.476
15:04 1024 30.24 853 25.19 4.1 39.3 36 -9.6 14.6 -88.3 -3.476
15:05 1024 30.24 853 25.19 4.1 39.4 37 -9.4 15 -88.2 -3.472
15:06 1024 30.24 853 25.19 4 39.3 37 -9.5 14.8 -88.2 -3.472
15:07 1024 30.24 853 25.19 4 39.3 36 -9.6 14.7 -88.1 -3.469
15:08 1024 30.24 853 25.19 4 39.2 35 -10.1 13.7 -88.1 -3.469
15:09 1024 30.24 853 25.19 3.9 39 35 -10.2 13.7 -88.1 -3.469
15:10 1024 30.24 853 25.19 3.8 38.9 36 -9.8 14.4 -88 -3.465
15:11 1024 30.24 853 25.19 3.9 39 38 -9.3 15.2 -88 -3.465
15:12 1024 30.24 853 25.19 4 39.2 35 -10.2 13.6 -88 -3.465
15:13 1024 30.24 853 25.19 4 39.3 38 -9.1 15.6 -88 -3.465
15:14 1024 30.24 853 25.19 4.1 39.4 36 -9.8 14.4 -87.9 -3.461
15:15 1024 30.24 853 25.19 4.2 39.5 35 -10.1 13.8 -87.9 -3.461
15:16 1024 30.24 853 25.19 4.1 39.4 37 -9.5 15 -87.9 -3.461
15:17 1024 30.24 853 25.19 4.1 39.4 36 -9.5 14.9 -87.9 -3.461
15:18 1024 30.24 853 25.19 4.1 39.5 37 -9.1 15.5 -88 -3.465
15:19 1024 30.24 853 25.19 4.2 39.6 37 -9.2 15.5 -87.9 -3.461
15:20 1024 30.24 853 25.19 4.4 39.9 37 -9 15.7 -87.9 -3.461
15:21 1024 30.24 853 25.19 4.5 40 34 -10.1 13.9 -87.9 -3.461
15:22 1024 30.24 853 25.19 4.4 39.8 33 -10.5 13.1 -87.9 -3.461
15:23 1024 30.24 853 25.19 4.3 39.7 33 -10.7 12.7 -87.9 -3.461
15:24 1024 30.24 853 25.19 4.3 39.8 36 -9.4 15.1 -87.9 -3.461
15:25 1024 30.24 853 25.19 4.3 39.8 34 -10.2 13.6 -87.9 -3.461
15:26 1024 30.24 853 25.19 4.3 39.7 35 -10 14 -87.9 -3.461
15:27 1024 30.24 853 25.19 4.2 39.6 34 -10.1 13.8 -87.9 -3.461
15:28 1024 30.24 853 25.19 4.2 39.5 34 -10.4 13.3 -87.9 -3.461
15:29 1024 30.24 853 25.19 4.1 39.5 34 -10.3 13.5 -87.9 -3.461
15:30 1024 30.24 853 25.19 4 39.2 38 -9.2 15.4 -87.9 -3.461
15:31 1024 30.24 853 25.19 4.1 39.3 36 -9.7 14.6 -87.9 -3.461
15:32 1024 30.24 853 25.19 4 39.3 34 -10.4 13.4 -87.8 -3.457
15:33 1024 30.24 853 25.19 4 39.2 34 -10.6 12.9 -87.8 -3.457
15:34 1024 30.24 853 25.19 4 39.1 34 -10.7 12.8 -87.8 -3.457
15:35 1024 30.24 853 25.19 4 39.1 35 -10.1 13.9 -87.8 -3.457
15:36 1024 30.24 853 25.19 4 39.1 33 -10.7 12.7 -87.8 -3.457
15:37 1024 30.24 853 25.19 4 39.1 35 -10.2 13.6 -87.9 -3.461
15:38 1024 30.24 853 25.19 4.1 39.3 36 -9.6 14.8 -87.9 -3.461
15:39 1024 30.24 853 25.19 4.1 39.4 33 -10.6 12.9 -87.8 -3.457
15:40 1024 30.24 853 25.19 4.1 39.4 35 -10.2 13.6 -87.8 -3.457
15:41 1023 30.21 853 25.19 4.1 39.4 37 -9.3 15.3 -87.8 -3.457
15:42 1023 30.21 853 25.19 4.2 39.6 33 -10.6 12.9 -87.8 -3.457
15:43 1023 30.21 853 25.19 4.2 39.5 34 -10.2 13.7 -87.8 -3.457
15:44 1023 30.21 853 25.19 4.2 39.6 34 -10.5 13.1 -87.8 -3.457
15:45 1023 30.21 853 25.19 4.2 39.6 33 -10.7 12.7 -87.8 -3.457
15:46 1023 30.21 853 25.19 4.2 39.6 33 -10.7 12.8 -87.8 -3.457
15:47 1023 30.21 853 25.19 4.3 39.8 32 -10.8 12.6 -87.7 -3.453
15:48 1023 30.21 852 25.16 4.4 40 34 -10.3 13.5 -87.7 -3.453
15:49 1023 30.21 852 25.16 4.5 40.1 32 -10.8 12.6 -87.7 -3.453
15:50 1023 30.21 852 25.16 4.6 40.2 32 -10.6 12.9 -87.7 -3.453
15:51 1023 30.21 852 25.16 4.6 40.3 32 -10.6 12.9 -87.7 -3.453
15:52 1023 30.21 852 25.16 4.6 40.3 32 -10.5 13 -87.7 -3.453
15:53 1023 30.21 852 25.16 4.5 40 34 -10.2 13.6 -87.7 -3.453
15:54 1023 30.21 852 25.16 4.4 39.9 33 -10.4 13.3 -87.7 -3.453
15:55 1023 30.21 852 25.16 4.4 39.9 33 -10.5 13.1 -87.7 -3.453
15:56 1023 30.21 852 25.16 4.5 40.1 33 -10.6 13 -87.7 -3.453
15:57 1023 30.21 852 25.16 4.4 39.9 34 -10.1 13.8 -87.7 -3.453
15:58 1023 30.21 852 25.16 4.3 39.8 33 -10.6 12.9 -87.7 -3.453
15:59 1023 30.21 852 25.16 4.3 39.7 33 -10.5 13.1 -87.7 -3.453
16:00 1023 30.21 852 25.16 4.3 39.7 35 -9.9 14.1 -87.7 -3.453
16:01 1023 30.21 852 25.16 4.3 39.7 35 -9.7 14.5 -87.7 -3.453
16:02 1023 30.21 852 25.16 4.2 39.6 32 -10.9 12.4 -87.7 -3.453
16:03 1023 30.21 852 25.16 4.1 39.5 34 -10.5 13.1 -87.7 -3.453
16:04 1023 30.21 852 25.16 4.2 39.6 35 -9.7 14.5 -87.7 -3.453
16:05 1023 30.21 852 25.16 4.2 39.6 33 -10.5 13.1 -87.7 -3.453
16:06 1023 30.21 852 25.16 4.3 39.7 36 -9.7 14.5 -87.6 -3.449
16:07 1023 30.21 852 25.16 4.3 39.7 35 -9.8 14.3 -87.6 -3.449
16:08 1023 30.21 852 25.16 4.3 39.7 33 -10.5 13.2 -87.5 -3.445
16:09 1023 30.21 852 25.16 4.2 39.6 33 -10.6 12.9 -87.6 -3.449
16:10 1023 30.21 852 25.16 4.1 39.4 35 -10.2 13.7 -87.6 -3.449
16:11 1023 30.21 852 25.16 4.2 39.5 37 -9.4 15.1 -87.6 -3.449
16:12 1023 30.21 852 25.16 4.2 39.5 34 -10.3 13.5 -87.7 -3.453
16:13 1023 30.21 852 25.16 4.2 39.6 33 -10.6 13 -87.7 -3.453
16:14 1023 30.21 852 25.16 4.2 39.6 33 -10.5 13 -87.7 -3.453
16:15 1023 30.21 852 25.16 4.1 39.4 33 -10.8 12.6 -87.7 -3.453
16:16 1023 30.21 852 25.16 4 39.3 34 -10.3 13.4 -87.7 -3.453
16:17 1023 30.21 852 25.16 4 39.1 34 -10.6 12.9 -87.8 -3.457
16:18 1023 30.21 852 25.16 4 39.2 35 -10.1 13.9 -87.8 -3.457
16:19 1023 30.21 852 25.16 4.1 39.3 35 -9.9 14.1 -87.8 -3.457
16:20 1023 30.21 852 25.16 4.1 39.5 34 -10.4 13.3 -87.8 -3.457
16:21 1023 30.21 852 25.16 4.2 39.6 35 -9.8 14.3 -87.8 -3.457
16:22 1023 30.21 852 25.16 4.3 39.7 33 -10.7 12.7 -87.9 -3.461
16:23 1023 30.21 852 25.16 4.3 39.7 35 -10 14.1 -87.9 -3.461
16:24 1023 30.21 852 25.16 4.3 39.7 34 -10.3 13.4 -87.9 -3.461
16:25 1023 30.21 852 25.16 4.3 39.7 34 -10.2 13.6 -87.9 -3.461
16:26 1023 30.21 852 25.16 4.3 39.7 35 -10.1 13.9 -87.9 -3.461
16:27 1023 30.21 852 25.16 4.2 39.5 34 -10.2 13.6 -87.9 -3.461
16:28 1023 30.21 852 25.16 4.1 39.5 33 -10.9 12.4 -87.9 -3.461
16:29 1023 30.21 852 25.16 4.1 39.4 33 -10.6 12.9 -87.9 -3.461
16:30 1023 30.21 852 25.16 4.2 39.5 36 -9.7 14.5 -87.9 -3.461
16:31 1023 30.21 852 25.16 4.2 39.6 35 -9.9 14.2 -87.9 -3.461
16:32 1023 30.21 852 25.16 4.3 39.8 33 -10.4 13.3 -87.8 -3.457
16:33 1023 30.21 852 25.16 4.4 40 33 -10.7 12.8 -87.8 -3.457
16:34 1023 30.21 852 25.16 4.5 40.1 35 -9.8 14.3 -87.7 -3.453
16:35 1023 30.21 852 25.16 4.5 40.2 33 -10.3 13.4 -87.6 -3.449
16:36 1023 30.21 852 25.16 4.5 40.1 33 -10.3 13.5 -87.6 -3.449
16:37 1023 30.21 852 25.16 4.4 40 33 -10.3 13.5 -87.6 -3.449
16:38 1023 30.21 852 25.16 4.4 39.9 33 -10.7 12.8 -87.5 -3.445
16:39 1023 30.21 852 25.16 4.3 39.7 33 -10.6 13 -87.5 -3.445
16:40 1023 30.21 852 25.16 4.3 39.7 35 -9.8 14.3 -87.5 -3.445
16:41 1023 30.21 852 25.16 4.3 39.7 34 -10.2 13.7 -87.5 -3.445
16:42 1023 30.21 852 25.16 4.3 39.7 32 -10.9 12.3 -87.5 -3.445
16:43 1023 30.21 852 25.16 4.2 39.5 33 -10.8 12.6 -87.5 -3.445
16:44 1023 30.21 852 25.16 4.2 39.6 34 -10.3 13.5 -87.5 -3.445
16:45 1023 30.21 852 25.16 4.2 39.6 33 -10.6 12.9 -87.5 -3.445
16:46 1023 30.21 852 25.16 4.3 39.7 33 -10.6 12.9 -87.5 -3.445
16:47 1023 30.21 852 25.16 4.2 39.6 32 -11.3 11.7 -87.4 -3.441
16:48 1023 30.21 852 25.16 4.4 39.8 32 -11.1 12 -87.4 -3.441
16:49 1023 30.21 852 25.16 4.5 40.1 33 -10.6 12.9 -87.5 -3.445
16:50 1023 30.21 852 25.16 4.6 40.3 32 -10.8 12.5 -87.5 -3.445
16:51 1023 30.21 852 25.16 4.4 40 33 -10.7 12.8 -87.4 -3.441
16:52 1023 30.21 852 25.16 4.4 39.8 33 -10.7 12.7 -87.5 -3.445
16:53 1023 30.21 852 25.16 4.3 39.7 34 -10.3 13.4 -87.5 -3.445
16:54 1023 30.21 852 25.16 4.2 39.6 32 -11 12.3 -87.4 -3.441
16:55 1022 30.18 852 25.16 4.2 39.6 33 -10.8 12.6 -87.4 -3.441
16:56 1022 30.18 852 25.16 4.2 39.5 32 -11.3 11.7 -87.4 -3.441
16:57 1022 30.18 852 25.16 4 39.3 32 -11.2 11.8 -87.4 -3.441
16:58 1022 30.18 852 25.16 3.9 39.1 33 -10.8 12.5 -87.4 -3.441
16:59 1022 30.18 852 25.16 3.9 39.1 35 -10.3 13.5 -87.4 -3.441
17:00 1022 30.18 852 25.16 4 39.1 32 -11.2 11.9 -87.4 -3.441
17:01 1022 30.18 852 25.16 4 39.1 32 -11.2 11.8 -87.5 -3.445
17:02 1022 30.18 852 25.16 3.9 39.1 32 -11.3 11.7 -87.5 -3.445
17:03 1022 30.18 852 25.16 3.9 39 32 -11.4 11.5 -87.5 -3.445
17:04 1022 30.18 851 25.13 3.9 39 32 -11.2 11.8 -87.5 -3.445
17:05 1022 30.18 851 25.13 3.9 39 33 -11.1 12 -87.5 -3.445
17:06 1022 30.18 851 25.13 3.9 39.1 33 -10.9 12.5 -87.5 -3.445
17:07 1022 30.18 851 25.13 4 39.2 35 -10 14 -87.5 -3.445
17:08 1022 30.18 851 25.13 4 39.2 34 -10.6 12.9 -87.5 -3.445
17:09 1022 30.18 851 25.13 3.9 39.1 34 -10.4 13.3 -87.5 -3.445
17:10 1022 30.18 851 25.13 3.9 39.1 35 -10.3 13.5 -87.5 -3.445
17:11 1022 30.18 851 25.13 3.9 39 33 -10.8 12.6 -87.5 -3.445
17:12 1022 30.18 851 25.13 3.9 39 33 -10.8 12.6 -87.5 -3.445
17:13 1022 30.18 851 25.13 3.9 38.9 34 -10.8 12.6 -87.5 -3.445
17:14 1022 30.18 851 25.13 3.8 38.9 33 -11.2 11.8 -87.5 -3.445
17:15 1022 30.18 851 25.13 3.8 38.9 33 -11.1 12 -87.5 -3.445
17:16 1022 30.18 851 25.13 3.8 38.8 35 -10.5 13.2 -87.5 -3.445
17:17 1022 30.18 851 25.13 3.8 38.8 34 -10.8 12.5 -87.5 -3.445
17:18 1022 30.18 851 25.13 3.7 38.6 35 -10.6 12.9 -87.5 -3.445
17:19 1022 30.18 851 25.13 3.6 38.5 36 -10.1 13.7 -87.5 -3.445
17:20 1022 30.18 851 25.13 3.6 38.5 34 -10.7 12.7 -87.5 -3.445
17:21 1022 30.18 851 25.13 3.6 38.5 36 -10.2 13.6 -87.5 -3.445
17:22 1022 30.18 851 25.13 3.6 38.5 36 -10 13.9 -87.5 -3.445
17:23 1022 30.18 851 25.13 3.6 38.4 34 -10.9 12.4 -87.5 -3.445
17:24 1022 30.18 851 25.13 3.5 38.4 34 -10.9 12.3 -87.6 -3.449
17:25 1022 30.18 851 25.13 3.4 38.2 35 -10.5 13.1 -87.6 -3.449
17:26 1022 30.18 851 25.13 3.4 38.1 36 -10.2 13.6 -87.6 -3.449
17:27 1022 30.18 851 25.13 3.2 37.8 36 -10.4 13.3 -87.6 -3.449
17:28 1022 30.18 851 25.13 3.1 37.7 36 -10.5 13.1 -87.7 -3.453
17:29 1022 30.18 851 25.13 3 37.4 34 -11.4 11.4 -87.7 -3.453
17:30 1022 30.18 851 25.13 3 37.3 34 -11.4 11.6 -87.7 -3.453
17:31 1022 30.18 851 25.13 2.9 37.3 34 -11.6 11.1 -87.7 -3.453
17:32 1022 30.18 851 25.13 2.9 37.3 34 -11.3 11.6 -87.7 -3.453
17:33 1022 30.18 851 25.13 2.9 37.2 36 -10.9 12.4 -87.6 -3.449
17:34 1022 30.18 851 25.13 2.9 37.2 37 -10.5 13.1 -87.6 -3.449
17:35 1022 30.18 851 25.13 2.7 36.8 38 -10.2 13.6 -87.7 -3.453
17:36 1022 30.18 851 25.13 2.5 36.5 38 -10.5 13.1 -87.7 -3.453
17:37 1022 30.18 851 25.13 2.3 36.1 39 -10.4 13.3 -87.7 -3.453
17:38 1022 30.18 851 25.13 2.2 36 38 -10.9 12.5 -87.7 -3.453
17:39 1022 30.18 851 25.13 2.2 35.9 38 -10.6 12.9 -87.7 -3.453
17:40 1022 30.18 851 25.13 2.1 35.7 39 -10.6 12.9 -87.7 -3.453
17:41 1022 30.18 851 25.13 2 35.6 39 -10.5 13.1 -87.7 -3.453
17:42 1022 30.18 851 25.13 1.9 35.4 40 -10.5 13.1 -87.7 -3.453
17:43 1022 30.18 851 25.13 1.8 35.3 40 -10.6 13 -87.8 -3.457
17:44 1022 30.18 851 25.13 1.8 35.2 39 -10.6 12.9 -87.8 -3.457
17:45 1022 30.18 851 25.13 1.8 35.2 39 -10.7 12.7 -87.8 -3.457
17:46 1022 30.18 851 25.13 1.8 35.2 38 -10.9 12.3 -87.8 -3.457
17:47 1022 30.18 851 25.13 1.8 35.2 40 -10.6 13 -87.8 -3.457
17:48 1022 30.18 851 25.13 1.8 35.2 39 -10.9 12.4 -87.8 -3.457
17:49 1022 30.18 851 25.13 1.8 35.2 39 -10.9 12.5 -87.9 -3.461
17:50 1022 30.18 851 25.13 1.7 35.1 39 -10.8 12.5 -87.9 -3.461
17:51 1022 30.18 851 25.13 1.7 35 39 -10.8 12.5 -88 -3.465
17:52 1022 30.18 851 25.13 1.6 34.9 39 -10.9 12.3 -88 -3.465
17:53 1022 30.18 851 25.13 1.6 34.9 38 -11.2 11.9 -88.1 -3.469
17:54 1022 30.18 851 25.13 1.6 34.9 39 -11 12.2 -88.1 -3.469
17:55 1022 30.18 851 25.13 1.6 34.9 39 -10.9 12.4 -88.2 -3.472
17:56 1022 30.18 851 25.13 1.6 34.9 40 -10.6 12.9 -88.2 -3.472
17:57 1022 30.18 851 25.13 1.6 34.9 41 -10.4 13.3 -88.2 -3.472
17:58 1022 30.18 851 25.13 1.5 34.8 40 -10.6 12.9 -88.3 -3.476
17:59 1022 30.18 851 25.13 1.5 34.7 40 -10.7 12.7 -88.2 -3.472
18:00 1022 30.18 851 25.13 1.5 34.6 39 -11 12.2 -88.2 -3.472
18:01 1022 30.18 851 25.13 1.5 34.7 38 -11.2 11.9 -88.2 -3.472
18:02 1022 30.18 851 25.13 1.6 34.8 38 -11.2 11.8 -88.2 -3.472
18:03 1022 30.18 851 25.13 1.6 34.9 39 -11 12.1 -88.2 -3.472
18:04 1022 30.18 851 25.13 1.6 35 38 -11.2 11.9 -88.2 -3.472
18:05 1022 30.18 851 25.13 1.6 35 39 -10.9 12.3 -88.2 -3.472
18:06 1022 30.18 851 25.13 1.6 34.9 39 -11 12.2 -88.3 -3.476
18:07 1022 30.18 851 25.13 1.6 34.9 39 -10.9 12.3 -88.3 -3.476
18:08 1022 30.18 851 25.13 1.5 34.8 40 -10.8 12.6 -88.3 -3.476
18:09 1022 30.18 851 25.13 1.5 34.7 40 -10.8 12.5 -88.3 -3.476
18:10 1022 30.18 851 25.13 1.5 34.6 40 -10.8 12.5 -88.3 -3.476
18:11 1022 30.18 851 25.13 1.4 34.6 40 -10.9 12.4 -88.3 -3.476
18:12 1022 30.18 851 25.13 1.4 34.5 41 -10.5 13.1 -88.3 -3.476
18:13 1022 30.18 851 25.13 1.3 34.4 40 -10.7 12.7 -88.4 -3.48
18:14 1022 30.18 851 25.13 1.3 34.3 40 -10.9 12.4 -88.4 -3.48
18:15 1022 30.18 851 25.13 1.3 34.3 40 -11 12.3 -88.4 -3.48
18:16 1022 30.18 851 25.13 1.3 34.3 40 -11 12.3 -88.4 -3.48
18:17 1022 30.18 851 25.13 1.2 34.2 41 -10.7 12.8 -88.4 -3.48
18:18 1022 30.18 851 25.13 1.2 34.1 46 -9.2 15.5 -88.5 -3.484
18:19 1022 30.18 851 25.13 0.7 33.3 49 -8.7 16.3 -88.5 -3.484
18:20 1022 30.18 851 25.13 0.1 32.1 52 -8.7 16.4 -88.5 -3.484
18:21 1022 30.18 851 25.13 -0.5 31.1 55 -8.4 16.8 -88.5 -3.484
18:22 1022 30.18 851 25.13 -0.9 30.4 55 -8.9 16.1 -88.5 -3.484
18:23 1022 30.18 851 25.13 -1.1 30 55 -9 15.9 -88.5 -3.484
18:24 1022 30.18 851 25.13 -1.2 29.9 55 -9 15.8 -88.6 -3.488
18:25 1022 30.18 851 25.13 -1.2 29.8 55 -9.1 15.6 -88.6 -3.488
18:26 1022 30.18 851 25.13 -1.2 29.8 56 -8.9 16.1 -88.6 -3.488
18:27 1022 30.18 851 25.13 -1.3 29.6 57 -8.7 16.4 -88.6 -3.488
18:28 1022 30.18 851 25.13 -1.5 29.3 59 -8.5 16.7 -88.6 -3.488
18:29 1022 30.18 851 25.13 -1.8 28.7 61 -8.3 17 -88.7 -3.492
18:30 1022 30.18 851 25.13 -2.2 28 64 -8.1 17.4 -88.7 -3.492
18:31 1022 30.18 851 25.13 -2.6 27.4 66 -8.1 17.5 -88.7 -3.492
18:32 1022 30.18 851 25.13 -2.8 27 68 -7.9 17.8 -88.7 -3.492
18:33 1022 30.18 851 25.13 -3 26.6 70 -7.8 17.9 -88.8 -3.496
18:34 1022 30.18 851 25.13 -3.1 26.4 70 -7.8 18 -88.8 -3.496
18:35 1022 30.18 851 25.13 -3.2 26.3 71 -7.6 18.2 -88.8 -3.496
18:36 1022 30.18 851 25.13 -3.2 26.3 72 -7.6 18.4 -88.8 -3.496
18:37 1022 30.18 851 25.13 -3.2 26.3 73 -7.4 18.6 -88.9 -3.5
18:38 1022 30.18 851 25.13 -3.3 26.1 73 -7.3 18.8 -88.9 -3.5
18:39 1022 30.18 851 25.13 -3.3 26.1 74 -7.4 18.7 -88.9 -3.5
18:40 1022 30.18 851 25.13 -3.3 26 74 -7.3 18.9 -88.9 -3.5
18:41 1022 30.18 851 25.13 -3.4 25.9 74 -7.3 18.8 -88.9 -3.5
18:42 1022 30.18 851 25.13 -3.5 25.7 75 -7.4 18.8 -89 -3.504
18:43 1022 30.18 851 25.13 -3.6 25.6 76 -7.3 18.9 -89 -3.504
18:44 1022 30.18 851 25.13 -3.7 25.4 76 -7.3 18.8 -89 -3.504
18:45 1022 30.18 851 25.13 -3.8 25.1 76 -7.4 18.7 -89 -3.504
18:46 1022 30.18 851 25.13 -4 24.9 77 -7.4 18.6 -89 -3.504
18:47 1022 30.18 851 25.13 -4.1 24.6 78 -7.4 18.8 -89.1 -3.508
18:48 1022 30.18 851 25.13 -4.2 24.4 80 -7.2 19 -89.1 -3.508
18:49 1022 30.18 851 25.13 -4.3 24.3 80 -7.2 19 -89.1 -3.508
18:50 1022 30.18 851 25.13 -4.3 24.3 81 -7.1 19.2 -89.2 -3.512
18:51 1022 30.18 851 25.13 -4.3 24.2 82 -7 19.5 -89.3 -3.516
18:52 1022 30.18 851 25.13 -4.3 24.2 83 -6.8 19.7 -89.3 -3.516
18:53 1022 30.18 851 25.13 -4.3 24.3 82 -6.8 19.7 -89.4 -3.52
18:54 1022 30.18 851 25.13 -4.2 24.4 83 -6.7 19.9 -89.5 -3.524
18:55 1022 30.18 851 25.13 -4.1 24.6 82 -6.7 19.9 -89.5 -3.524
18:56 1022 30.18 851 25.13 -4.1 24.7 82 -6.7 19.9 -89.6 -3.528
18:57 1022 30.18 851 25.13 -4 24.8 82 -6.7 20 -89.6 -3.528
18:58 1022 30.18 851 25.13 -3.9 25 81 -6.6 20.1 -89.7 -3.531
18:59 1022 30.18 851 25.13 -3.8 25.2 81 -6.6 20.2 -89.7 -3.531
19:00 1022 30.18 851 25.13 -3.7 25.3 81 -6.5 20.3 -89.7 -3.531
19:01 1022 30.18 851 25.13 -3.6 25.5 81 -6.5 20.4 -89.7 -3.531
19:02 1022 30.18 851 25.13 -3.6 25.6 81 -6.4 20.4 -89.8 -3.535
19:03 1022 30.18 851 25.13 -3.5 25.7 81 -6.4 20.5 -89.8 -3.535
19:04 1022 30.18 851 25.13 -3.5 25.6 81 -6.4 20.5 -89.8 -3.535
19:05 1022 30.18 851 25.13 -3.5 25.7 80 -6.4 20.5 -89.9 -3.539
19:06 1022 30.18 851 25.13 -3.5 25.7 81 -6.4 20.5 -89.9 -3.539
19:07 1022 30.18 851 25.13 -3.6 25.6 81 -6.5 20.4 -89.9 -3.539
19:08 1022 30.18 851 25.13 -3.7 25.4 81 -6.5 20.4 -89.9 -3.539
19:09 1022 30.18 851 25.13 -3.7 25.3 82 -6.4 20.5 -90 -3.543
19:10 1022 30.18 851 25.13 -3.7 25.4 82 -6.3 20.7 -90 -3.543
19:11 1022 30.18 851 25.13 -3.6 25.5 82 -6.3 20.7 -90 -3.543
19:12 1022 30.18 851 25.13 -3.6 25.6 82 -6.2 20.8 -90 -3.543
19:13 1022 30.18 851 25.13 -3.5 25.6 82 -6.2 20.9 -90.1 -3.547
19:14 1022 30.18 851 25.13 -3.6 25.5 82 -6.2 20.8 -90.1 -3.547
19:15 1022 30.18 851 25.13 -3.6 25.5 83 -6.2 20.9 -90.1 -3.547
19:16 1022 30.18 851 25.13 -3.7 25.4 83 -6.1 20.9 -90.1 -3.547
19:17 1022 30.18 851 25.13 -3.7 25.3 83 -6.1 20.9 -90.1 -3.547
19:18 1022 30.18 851 25.13 -3.8 25.2 84 -6.1 21 -90.1 -3.547
19:19 1022 30.18 851 25.13 -3.8 25.2 85 -6 21.1 -90.1 -3.547
19:20 1022 30.18 851 25.13 -3.7 25.3 84 -6 21.2 -90.2 -3.551
19:21 1022 30.18 851 25.13 -3.7 25.3 84 -6 21.2 -90.2 -3.551
19:22 1022 30.18 851 25.13 -3.7 25.3 84 -6.1 21 -90.2 -3.551
19:23 1022 30.18 851 25.13 -3.7 25.3 83 -6.2 20.9 -90.2 -3.551
19:24 1022 30.18 851 25.13 -3.8 25.2 83 -6.2 20.9 -90.2 -3.551
19:25 1022 30.18 851 25.13 -3.8 25.2 84 -6.1 21 -90.3 -3.555
19:26 1022 30.18 851 25.13 -3.7 25.3 84 -6.1 21.1 -90.3 -3.555
19:27 1022 30.18 851 25.13 -3.7 25.4 84 -6 21.2 -90.3 -3.555
19:28 1022 30.18 851 25.13 -3.6 25.5 84 -6 21.2 -90.3 -3.555
19:29 1022 30.18 851 25.13 -3.6 25.5 84 -5.9 21.3 -90.3 -3.555
19:30 1022 30.18 851 25.13 -3.6 25.6 83 -6 21.2 -90.3 -3.555
19:31 1022 30.18 851 25.13 -3.5 25.7 83 -6 21.3 -90.3 -3.555
19:32 1022 30.18 851 25.13 -3.5 25.7 83 -6 21.3 -90.3 -3.555
19:33 1022 30.18 851 25.13 -3.5 25.6 83 -6 21.2 -90.3 -3.555
19:34 1022 30.18 851 25.13 -3.6 25.6 83 -6 21.2 -90.3 -3.555
19:35 1022 30.18 851 25.13 -3.7 25.4 84 -6 21.2 -90.3 -3.555
19:36 1022 30.18 851 25.13 -3.7 25.3 84 -6.1 21.1 -90.4 -3.559
19:37 1022 30.18 851 25.13 -3.7 25.3 84 -6 21.2 -90.4 -3.559
19:38 1022 30.18 851 25.13 -3.7 25.3 84 -6.1 21.1 -90.4 -3.559
19:39 1022 30.18 851 25.13 -3.7 25.3 84 -6.1 21.1 -90.4 -3.559
19:40 1022 30.18 851 25.13 -3.7 25.3 84 -6.1 21.1 -90.4 -3.559
19:41 1022 30.18 851 25.13 -3.7 25.4 84 -6 21.1 -90.4 -3.559
19:42 1022 30.18 851 25.13 -3.7 25.4 84 -6 21.1 -90.5 -3.563
19:43 1022 30.18 851 25.13 -3.7 25.3 84 -6.1 21.1 -90.5 -3.563
19:44 1022 30.18 851 25.13 -3.7 25.3 84 -6 21.2 -90.5 -3.563
19:45 1022 30.18 851 25.13 -3.6 25.5 83 -6 21.1 -90.5 -3.563
19:46 1022 30.18 851 25.13 -3.6 25.5 83 -6 21.2 -90.5 -3.563
19:47 1022 30.18 851 25.13 -3.6 25.5 83 -6 21.1 -90.5 -3.563
19:48 1022 30.18 851 25.13 -3.6 25.5 83 -6.1 21 -90.5 -3.563
19:49 1022 30.18 851 25.13 -3.7 25.4 83 -6.1 21 -90.6 -3.567
19:50 1022 30.18 851 25.13 -3.7 25.3 83 -6.2 20.9 -90.6 -3.567
19:51 1022 30.18 851 25.13 -3.7 25.3 83 -6.2 20.9 -90.6 -3.567
19:52 1022 30.18 851 25.13 -3.8 25.2 84 -6.2 20.9 -90.6 -3.567
19:53 1022 30.18 851 25.13 -3.8 25.2 84 -6.2 20.8 -90.6 -3.567
19:54 1022 30.18 851 25.13 -3.8 25.1 84 -6.2 20.9 -90.6 -3.567
19:55 1022 30.18 851 25.13 -3.8 25.1 83 -6.3 20.7 -90.6 -3.567
19:56 1022 30.18 851 25.13 -3.9 25 84 -6.2 20.9 -90.6 -3.567
19:57 1022 30.18 851 25.13 -3.8 25.2 83 -6.2 20.9 -90.6 -3.567
19:58 1022 30.18 851 25.13 -3.7 25.4 82 -6.3 20.6 -90.6 -3.567
19:59 1022 30.18 851 25.13 -3.7 25.4 82 -6.3 20.7 -90.6 -3.567
20:00 1022 30.18 851 25.13 -3.6 25.5 82 -6.3 20.7 -90.6 -3.567
20:01 1022 30.18 851 25.13 -3.6 25.6 81 -6.4 20.5 -90.6 -3.567
20:02 1021 30.15 851 25.13 -3.5 25.7 80 -6.4 20.5 -90.6 -3.567
20:03 1021 30.15 851 25.13 -3.4 25.9 80 -6.4 20.6 -90.6 -3.567
20:04 1021 30.15 851 25.13 -3.2 26.3 79 -6.4 20.6 -90.6 -3.567
20:05 1021 30.15 851 25.13 -3.1 26.5 77 -6.5 20.3 -90.6 -3.567
20:06 1021 30.15 851 25.13 -3.1 26.3 78 -6.5 20.3 -90.6 -3.567
20:07 1021 30.15 851 25.13 -3.3 26.1 79 -6.5 20.3 -90.6 -3.567
20:08 1021 30.15 851 25.13 -3.4 26 78 -6.6 20.1 -90.7 -3.571
20:09 1021 30.15 851 25.13 -3.6 25.6 80 -6.6 20.1 -90.7 -3.571
20:10 1021 30.15 851 25.13 -3.7 25.4 81 -6.5 20.2 -90.7 -3.571
20:11 1021 30.15 851 25.13 -3.7 25.4 80 -6.6 20.1 -90.7 -3.571
20:12 1021 30.15 851 25.13 -3.7 25.3 81 -6.6 20.2 -90.7 -3.571
20:13 1021 30.15 851 25.13 -3.6 25.4 80 -6.6 20.1 -90.7 -3.571
20:14 1021 30.15 851 25.13 -3.5 25.7 79 -6.6 20.1 -90.7 -3.571
20:15 1021 30.15 851 25.13 -3.5 25.7 79 -6.6 20.2 -90.7 -3.571
20:16 1021 30.15 851 25.13 -3.5 25.7 79 -6.6 20.1 -90.7 -3.571
20:17 1021 30.15 851 25.13 -3.5 25.7 79 -6.6 20.2 -90.7 -3.571
20:18 1021 30.15 851 25.13 -3.6 25.5 79 -6.7 19.9 -90.7 -3.571
20:19 1021 30.15 851 25.13 -3.8 25.2 80 -6.7 19.9 -90.8 -3.575
20:20 1021 30.15 851 25.13 -3.9 25 82 -6.6 20.1 -90.8 -3.575
20:21 1021 30.15 851 25.13 -3.9 25 82 -6.5 20.2 -90.8 -3.575
20:22 1021 30.15 851 25.13 -3.9 24.9 82 -6.6 20.2 -90.8 -3.575
20:23 1021 30.15 851 25.13 -3.9 24.9 83 -6.5 20.3 -90.8 -3.575
20:24 1021 30.15 851 25.13 -3.9 25 83 -6.5 20.4 -90.8 -3.575
20:25 1021 30.15 851 25.13 -4 24.8 82 -6.5 20.2 -90.8 -3.575
20:26 1021 30.15 851 25.13 -4.1 24.6 82 -6.7 20 -90.8 -3.575
20:27 1021 30.15 851 25.13 -4.2 24.4 84 -6.5 20.4 -90.8 -3.575
20:28 1021 30.15 851 25.13 -4.3 24.3 85 -6.4 20.5 -90.9 -3.579
20:29 1021 30.15 851 25.13 -4.3 24.3 85 -6.4 20.6 -90.9 -3.579
20:30 1021 30.15 851 25.13 -4.2 24.5 85 -6.3 20.6 -90.9 -3.579
20:31 1021 30.15 851 25.13 -4 24.8 84 -6.3 20.6 -90.9 -3.579
20:32 1021 30.15 851 25.13 -3.9 24.9 83 -6.4 20.5 -91 -3.583
20:33 1021 30.15 851 25.13 -4 24.8 83 -6.5 20.4 -91 -3.583
20:34 1021 30.15 851 25.13 -3.9 25 82 -6.5 20.4 -91 -3.583
20:35 1021 30.15 851 25.13 -3.7 25.4 81 -6.4 20.4 -91 -3.583
20:36 1021 30.15 851 25.13 -3.5 25.6 80 -6.4 20.4 -91 -3.583
20:37 1021 30.15 851 25.13 -3.5 25.7 80 -6.4 20.4 -91 -3.583
20:38 1021 30.15 851 25.13 -3.5 25.8 80 -6.4 20.5 -91 -3.583
20:39 1021 30.15 851 25.13 -3.6 25.5 81 -6.4 20.4 -91 -3.583
20:40 1021 30.15 851 25.13 -3.7 25.4 81 -6.5 20.4 -91 -3.583
20:41 1021 30.15 851 25.13 -3.8 25.2 81 -6.5 20.3 -91 -3.583
20:42 1021 30.15 851 25.13 -3.8 25.2 82 -6.5 20.4 -91 -3.583
20:43 1021 30.15 851 25.13 -3.8 25.1 82 -6.5 20.4 -91 -3.583
20:44 1021 30.15 851 25.13 -3.9 25 83 -6.4 20.4 -91 -3.583
20:45 1021 30.15 851 25.13 -3.9 24.9 83 -6.4 20.4 -91 -3.583
20:46 1021 30.15 851 25.13 -3.9 24.9 83 -6.4 20.4 -91 -3.583
20:47 1021 30.15 851 25.13 -3.9 25 83 -6.4 20.4 -91 -3.583
20:48 1021 30.15 851 25.13 -3.8 25.1 82 -6.4 20.5 -91 -3.583
20:49 1021 30.15 851 25.13 -3.8 25.1 82 -6.4 20.4 -91 -3.583
20:50 1021 30.15 851 25.13 -3.8 25.2 82 -6.4 20.6 -91 -3.583
20:51 1021 30.15 851 25.13 -3.7 25.3 81 -6.5 20.4 -91 -3.583
20:52 1021 30.15 851 25.13 -3.6 25.5 82 -6.3 20.7 -91 -3.583
20:53 1021 30.15 851 25.13 -3.7 25.4 82 -6.4 20.6 -91 -3.583
20:54 1021 30.15 851 25.13 -3.7 25.4 82 -6.3 20.7 -91 -3.583
20:55 1021 30.15 851 25.13 -3.6 25.5 82 -6.2 20.8 -91 -3.583
20:56 1021 30.15 851 25.13 -3.6 25.6 82 -6.2 20.8 -91.1 -3.587
20:57 1021 30.15 851 25.13 -3.6 25.5 82 -6.2 20.8 -91.1 -3.587
20:58 1021 30.15 851 25.13 -3.5 25.7 80 -6.4 20.4 -91.1 -3.587
20:59 1021 30.15 851 25.13 -3.3 26 79 -6.5 20.3 -91.1 -3.587
21:00 1021 30.15 851 25.13 -3.1 26.4 78 -6.5 20.4 -91 -3.583
21:01 1021 30.15 851 25.13 -3 26.6 78 -6.3 20.7 -91 -3.583
21:02 1021 30.15 851 25.13 -3 26.7 76 -6.7 20 -91 -3.583
21:03 1021 30.15 851 25.13 -2.7 27.1 75 -6.6 20.1 -91 -3.583
21:04 1021 30.15 851 25.13 -2.7 27.2 75 -6.5 20.4 -91 -3.583
21:05 1021 30.15 851 25.13 -2.7 27.2 76 -6.3 20.6 -91 -3.583
21:06 1021 30.15 851 25.13 -2.7 27.2 75 -6.5 20.3 -91 -3.583
21:07 1021 30.15 851 25.13 -2.6 27.2 75 -6.5 20.4 -91 -3.583
21:08 1021 30.15 851 25.13 -2.6 27.2 75 -6.5 20.2 -91 -3.583
21:09 1021 30.15 851 25.13 -2.5 27.4 73 -6.7 19.9 -91 -3.583
21:10 1021 30.15 851 25.13 -2.4 27.6 74 -6.4 20.5 -91 -3.583
21:11 1021 30.15 851 25.13 -2.4 27.7 72 -6.7 19.9 -91 -3.583
21:12 1021 30.15 851 25.13 -2.3 27.8 73 -6.6 20.1 -91 -3.583
21:13 1021 30.15 851 25.13 -2.3 27.8 73 -6.6 20.2 -91 -3.583
21:14 1021 30.15 851 25.13 -2.3 27.9 73 -6.5 20.3 -90.9 -3.579
21:15 1021 30.15 851 25.13 -2.3 27.9 73 -6.5 20.4 -90.9 -3.579
21:16 1021 30.15 851 25.13 -2.2 28 69 -7.2 19 -90.9 -3.579
21:17 1021 30.15 851 25.13 -2 28.4 65 -7.7 18.2 -90.9 -3.579
21:18 1021 30.15 851 25.13 -1.7 29 67 -7 19.4 -90.9 -3.579
21:19 1021 30.15 851 25.13 -1.7 29 67 -6.9 19.5 -90.9 -3.579
21:20 1021 30.15 851 25.13 -1.7 29 67 -7 19.3 -90.9 -3.579
21:21 1021 30.15 851 25.13 -1.7 29 67 -7.1 19.3 -90.8 -3.575
21:22 1021 30.15 851 25.13 -1.6 29.1 66 -7.1 19.3 -90.8 -3.575
21:23 1021 30.15 851 25.13 -1.6 29.1 67 -6.9 19.5 -90.8 -3.575
21:24 1021 30.15 851 25.13 -1.6 29.1 67 -6.9 19.6 -90.8 -3.575
21:25 1021 30.15 851 25.13 -1.6 29.1 67 -7 19.4 -90.8 -3.575
21:26 1021 30.15 851 25.13 -1.7 29 68 -6.9 19.6 -90.8 -3.575
21:27 1021 30.15 851 25.13 -1.7 28.9 68 -6.8 19.7 -90.8 -3.575
21:28 1021 30.15 851 25.13 -1.8 28.7 69 -6.8 19.7 -90.8 -3.575
21:29 1021 30.15 851 25.13 -1.9 28.6 68 -6.9 19.5 -90.8 -3.575
21:30 1021 30.15 851 25.13 -1.9 28.6 68 -7 19.5 -90.8 -3.575
21:31 1021 30.15 851 25.13 -1.8 28.7 68 -6.9 19.5 -90.7 -3.571
21:32 1021 30.15 851 25.13 -1.8 28.8 68 -7 19.3 -90.7 -3.571
21:33 1021 30.15 851 25.13 -1.7 28.9 67 -7 19.4 -90.8 -3.575
21:34 1021 30.15 851 25.13 -1.8 28.8 68 -6.9 19.6 -90.7 -3.571
21:35 1021 30.15 850 25.1 -1.8 28.8 68 -6.9 19.5 -90.7 -3.571
21:36 1021 30.15 850 25.1 -1.8 28.8 67 -7.1 19.2 -90.8 -3.575
21:37 1021 30.15 850 25.1 -1.7 28.9 66 -7.4 18.7 -90.7 -3.571
21:38 1021 30.15 850 25.1 -1.7 29 65 -7.5 18.6 -90.8 -3.575
21:39 1021 30.15 851 25.13 -1.6 29.2 64 -7.6 18.4 -90.8 -3.575
21:40 1021 30.15 851 25.13 -1.4 29.4 63 -7.7 18.1 -90.8 -3.575
21:41 1021 30.15 851 25.13 -1.3 29.6 61 -8 17.7 -90.8 -3.575
21:42 1021 30.15 851 25.13 -1.2 29.9 61 -7.8 18 -90.8 -3.575
21:43 1021 30.15 851 25.13 -1.1 30 60 -7.9 17.9 -90.8 -3.575
21:44 1021 30.15 851 25.13 -1 30.1 59 -8 17.6 -90.8 -3.575
21:45 1021 30.15 851 25.13 -1 30.3 59 -8 17.5 -90.8 -3.575
21:46 1021 30.15 851 25.13 -0.9 30.4 58 -8 17.5 -90.8 -3.575
21:47 1021 30.15 851 25.13 -0.9 30.5 58 -8.1 17.5 -90.8 -3.575
21:48 1021 30.15 851 25.13 -0.9 30.5 59 -7.9 17.7 -90.8 -3.575
21:49 1021 30.15 851 25.13 -0.9 30.4 59 -7.8 17.9 -90.8 -3.575
21:50 1021 30.15 851 25.13 -1 30.3 60 -7.8 18 -90.7 -3.571
21:51 1021 30.15 851 25.13 -1 30.3 60 -7.8 18 -90.7 -3.571
21:52 1021 30.15 851 25.13 -1 30.2 60 -7.8 17.9 -90.7 -3.571
21:53 1021 30.15 851 25.13 -0.9 30.3 60 -7.7 18.2 -90.7 -3.571
21:54 1021 30.15 851 25.13 -0.9 30.3 61 -7.6 18.3 -90.6 -3.567
21:55 1021 30.15 851 25.13 -1 30.3 62 -7.4 18.6 -90.6 -3.567
21:56 1021 30.15 851 25.13 -1 30.1 62 -7.3 18.8 -90.6 -3.567
21:57 1021 30.15 851 25.13 -1.1 30 63 -7.3 18.8 -90.6 -3.567
21:58 1021 30.15 851 25.13 -1.3 29.7 63 -7.4 18.7 -90.6 -3.567
21:59 1021 30.15 851 25.13 -1.3 29.7 63 -7.4 18.6 -90.6 -3.567
22:00 1021 30.15 851 25.13 -1.3 29.7 63 -7.4 18.6 -90.6 -3.567
22:01 1021 30.15 851 25.13 -1.2 29.8 63 -7.4 18.7 -90.6 -3.567
22:02 1021 30.15 851 25.13 -1.2 29.8 64 -7.2 19 -90.6 -3.567
22:03 1021 30.15 851 25.13 -1.3 29.7 65 -7.1 19.2 -90.6 -3.567
22:04 1021 30.15 851 25.13 -1.3 29.7 65 -7.1 19.2 -90.6 -3.567
22:05 1021 30.15 851 25.13 -1.3 29.6 64 -7.2 19 -90.7 -3.571
22:06 1021 30.15 851 25.13 -1.3 29.6 65 -7 19.4 -90.7 -3.571
22:07 1021 30.15 851 25.13 -1.4 29.5 66 -7 19.5 -90.8 -3.575
22:08 1021 30.15 851 25.13 -1.3 29.6 65 -7.2 19.1 -90.8 -3.575
22:09 1021 30.15 851 25.13 -1.3 29.7 63 -7.5 18.5 -90.8 -3.575
22:10 1022 30.18 851 25.13 -1.1 30 61 -7.7 18.2 -90.8 -3.575
22:11 1022 30.18 851 25.13 -0.9 30.4 63 -7.1 19.1 -90.8 -3.575
22:12 1022 30.18 851 25.13 -0.8 30.5 62 -7.2 19 -90.8 -3.575
22:13 1022 30.18 851 25.13 -0.8 30.6 61 -7.4 18.7 -90.8 -3.575
22:14 1022 30.18 851 25.13 -0.6 30.8 59 -7.6 18.3 -90.8 -3.575
22:15 1022 30.18 851 25.13 -0.5 31.1 60 -7.4 18.7 -90.8 -3.575
22:16 1022 30.18 851 25.13 -0.4 31.3 60 -7.2 19 -90.8 -3.575
22:17 1022 30.18 851 25.13 -0.3 31.5 60 -7.2 19.1 -90.8 -3.575
22:18 1021 30.15 851 25.13 -0.2 31.6 60 -7.2 19.1 -90.8 -3.575
22:19 1021 30.15 851 25.13 -0.2 31.6 59 -7.3 18.8 -90.8 -3.575
22:20 1022 30.18 851 25.13 -0.2 31.7 58 -7.4 18.8 -90.8 -3.575
22:21 1022 30.18 851 25.13 -0.1 31.8 59 -7.1 19.2 -90.8 -3.575
22:22 1022 30.18 851 25.13 -0.1 31.8 59 -7.2 19 -90.8 -3.575
22:23 1022 30.18 851 25.13 -0.1 31.7 58 -7.4 18.7 -90.8 -3.575
22:24 1022 30.18 851 25.13 -0.1 31.8 57 -7.6 18.2 -90.8 -3.575
22:25 1022 30.18 851 25.13 -0 32 57 -7.5 18.6 -90.8 -3.575
22:26 1022 30.18 851 25.13 0 32.1 57 -7.4 18.6 -90.8 -3.575
22:27 1022 30.18 851 25.13 0.1 32.1 57 -7.4 18.7 -90.8 -3.575
22:28 1022 30.18 851 25.13 0.1 32.1 57 -7.5 18.4 -90.7 -3.571
22:29 1022 30.18 851 25.13 0.1 32.2 57 -7.4 18.7 -90.7 -3.571
22:30 1022 30.18 851 25.13 0.1 32.2 56 -7.6 18.3 -90.7 -3.571
22:31 1022 30.18 851 25.13 0.2 32.3 56 -7.6 18.3 -90.6 -3.567
22:32 1022 30.18 851 25.13 0.1 32.2 56 -7.7 18.1 -90.6 -3.567
22:33 1022 30.18 851 25.13 0.2 32.3 55 -7.7 18.1 -90.5 -3.563
22:34 1022 30.18 851 25.13 0.2 32.3 56 -7.6 18.4 -90.5 -3.563
22:35 1022 30.18 851 25.13 0.2 32.4 56 -7.5 18.5 -90.4 -3.559
22:36 1022 30.18 851 25.13 0.2 32.3 57 -7.4 18.6 -90.4 -3.559
22:37 1022 30.18 851 25.13 0.2 32.3 57 -7.3 18.9 -90.4 -3.559
22:38 1022 30.18 851 25.13 0.1 32.2 58 -7.3 18.9 -90.3 -3.555
22:39 1022 30.18 851 25.13 0 32.1 59 -7.2 19.1 -90.3 -3.555
22:40 1022 30.18 851 25.13 0 32 58 -7.2 19 -90.3 -3.555
22:41 1021 30.15 851 25.13 -0 32 58 -7.4 18.8 -90.3 -3.555
22:42 1021 30.15 851 25.13 -0.1 31.9 58 -7.4 18.8 -90.3 -3.555
22:43 1022 30.18 851 25.13 -0 31.9 59 -7.1 19.2 -90.3 -3.555
22:44 1022 30.18 851 25.13 -0 31.9 58 -7.3 18.9 -90.3 -3.555
22:45 1021 30.15 851 25.13 -0.1 31.9 58 -7.4 18.7 -90.3 -3.555
22:46 1021 30.15 851 25.13 0 32 57 -7.6 18.3 -90.3 -3.555
22:47 1021 30.15 851 25.13 0.1 32.2 57 -7.5 18.5 -90.3 -3.555
22:48 1021 30.15 851 25.13 0.1 32.2 57 -7.5 18.5 -90.3 -3.555
22:49 1021 30.15 851 25.13 0.1 32.2 56 -7.5 18.4 -90.3 -3.555
22:50 1021 30.15 850 25.1 0.2 32.3 55 -7.8 17.9 -90.3 -3.555
22:51 1021 30.15 850 25.1 0.2 32.4 55 -7.7 18.1 -90.3 -3.555
22:52 1021 30.15 850 25.1 0.3 32.5 53 -8.3 17 -90.3 -3.555
22:53 1021 30.15 850 25.1 0.4 32.7 52 -8.4 16.8 -90.2 -3.551
22:54 1021 30.15 850 25.1 0.5 32.9 52 -8.3 17.1 -90.2 -3.551
22:55 1021 30.15 850 25.1 0.6 33.1 51 -8.4 16.9 -90.2 -3.551
22:56 1021 30.15 850 25.1 0.7 33.2 51 -8.3 17.1 -90.2 -3.551
22:57 1021 30.15 850 25.1 0.7 33.2 51 -8.4 17 -90.2 -3.551
22:58 1021 30.15 850 25.1 0.7 33.3 51 -8.2 17.2 -90.3 -3.555
22:59 1021 30.15 850 25.1 0.7 33.3 50 -8.4 16.8 -90.3 -3.555
23:00 1021 30.15 850 25.1 0.8 33.4 49 -8.8 16.1 -90.3 -3.555
23:01 1021 30.15 850 25.1 0.8 33.5 50 -8.5 16.8 -90.3 -3.555
23:02 1021 30.15 850 25.1 0.9 33.6 51 -8.2 17.2 -90.3 -3.555
23:03 1021 30.15 850 25.1 0.8 33.5 50 -8.4 16.9 -90.3 -3.555
23:04 1021 30.15 850 25.1 0.8 33.5 52 -8 17.6 -90.3 -3.555
23:05 1021 30.15 850 25.1 0.8 33.5 51 -8.2 17.3 -90.3 -3.555
23:06 1021 30.15 850 25.1 0.8 33.4 51 -8.2 17.3 -90.3 -3.555
23:07 1021 30.15 850 25.1 0.8 33.4 51 -8.1 17.4 -90.3 -3.555
23:08 1021 30.15 850 25.1 0.8 33.4 52 -8.1 17.5 -90.3 -3.555
23:09 1021 30.15 850 25.1 0.7 33.3 52 -8 17.7 -90.3 -3.555
23:10 1021 30.15 850 25.1 0.7 33.3 52 -8 17.7 -90.3 -3.555
23:11 1021 30.15 850 25.1 0.7 33.2 53 -7.9 17.7 -90.3 -3.555
23:12 1021 30.15 850 25.1 0.7 33.2 53 -7.9 17.9 -90.3 -3.555
23:13 1021 30.15 850 25.1 0.7 33.2 53 -7.8 17.9 -90.3 -3.555
23:14 1021 30.15 850 25.1 0.6 33.1 53 -7.8 18 -90.3 -3.555
23:15 1021 30.15 850 25.1 0.6 33.1 54 -7.7 18.1 -90.3 -3.555
23:16 1021 30.15 850 25.1 0.6 33.1 54 -7.7 18.2 -90.3 -3.555
23:17 1021 30.15 850 25.1 0.6 33 54 -7.7 18.1 -90.2 -3.551
23:18 1021 30.15 850 25.1 0.6 33 53 -7.8 17.9 -90.2 -3.551
23:19 1021 30.15 850 25.1 0.6 33.1 53 -7.8 17.9 -90.2 -3.551
23:20 1021 30.15 850 25.1 0.6 33 53 -7.9 17.8 -90.2 -3.551
23:21 1021 30.15 850 25.1 0.6 33.1 53 -8 17.7 -90.2 -3.551
23:22 1021 30.15 850 25.1 0.6 33.1 53 -7.9 17.8 -90.1 -3.547
23:23 1021 30.15 850 25.1 0.7 33.2 53 -7.7 18.1 -90.1 -3.547
23:24 1021 30.15 850 25.1 0.7 33.2 53 -7.8 17.9 -90 -3.543
23:25 1021 30.15 850 25.1 0.7 33.2 53 -7.9 17.8 -90 -3.543
23:26 1021 30.15 850 25.1 0.7 33.2 54 -7.5 18.4 -90 -3.543
23:27 1021 30.15 850 25.1 0.7 33.2 54 -7.6 18.3 -90 -3.543
23:28 1021 30.15 850 25.1 0.7 33.2 54 -7.6 18.3 -90 -3.543
23:29 1021 30.15 850 25.1 0.7 33.2 55 -7.4 18.7 -90 -3.543
23:30 1021 30.15 850 25.1 0.6 33.1 55 -7.4 18.7 -90 -3.543
23:31 1021 30.15 850 25.1 0.6 33 54 -7.6 18.3 -90 -3.543
23:32 1021 30.15 850 25.1 0.6 33 54 -7.8 18 -90 -3.543
23:33 1021 30.15 850 25.1 0.6 33.1 53 -7.9 17.8 -90 -3.543
23:34 1021 30.15 850 25.1 0.6 33.2 54 -7.6 18.4 -90 -3.543
23:35 1021 30.15 850 25.1 0.7 33.2 58 -6.8 19.8 -90 -3.543
23:36 1021 30.15 850 25.1 0.6 33 60 -6.3 20.7 -90.1 -3.547
23:37 1021 30.15 850 25.1 0.4 32.8 49 -9 15.9 -90.1 -3.547
23:38 1021 30.15 851 25.13 0.6 33.1 48 -9.1 15.7 -90 -3.543
23:39 1021 30.15 851 25.13 0.8 33.5 51 -8.1 17.4 -90 -3.543
23:40 1021 30.15 851 25.13 1 33.7 49 -8.5 16.7 -90 -3.543
23:41 1021 30.15 851 25.13 1 33.8 47 -8.9 15.9 -90 -3.543
23:42 1021 30.15 851 25.13 1.1 34 50 -8.1 17.4 -90 -3.543
23:43 1021 30.15 851 25.13 1.1 34 48 -8.7 16.4 -90 -3.543
23:44 1021 30.15 851 25.13 1.2 34.2 47 -8.9 16 -90 -3.543
23:45 1021 30.15 851 25.13 1.3 34.4 47 -8.8 16.2 -90 -3.543
23:46 1021 30.15 851 25.13 1.4 34.5 48 -8.4 17 -89.9 -3.539
23:47 1021 30.15 851 25.13 1.4 34.6 48 -8.5 16.7 -89.9 -3.539
23:48 1021 30.15 851 25.13 1.4 34.5 45 -9.3 15.3 -89.9 -3.539
23:49 1021 30.15 851 25.13 1.4 34.5 43 -9.9 14.2 -89.9 -3.539
23:50 1021 30.15 851 25.13 1.5 34.7 43 -9.8 14.4 -89.9 -3.539
23:51 1021 30.15 851 25.13 1.6 34.8 42 -9.9 14.2 -89.9 -3.539
23:52 1021 30.15 851 25.13 1.6 34.9 42 -9.9 14.2 -89.9 -3.539
23:53 1021 30.15 851 25.13 1.7 35 44 -9.4 15.1 -90 -3.543
23:54 1021 30.15 851 25.13 1.6 35 42 -9.8 14.3 -90 -3.543
23:55 1021 30.15 851 25.13 1.7 35.1 32 -13.1 8.3 -90 -3.543
23:56 1021 30.15 851 25.13 2.2 36 35 -11.6 11 -90 -3.543
23:57 1021 30.15 851 25.13 2.6 36.6 39 -9.9 14.2 -90 -3.543
23:58 1021 30.15 851 25.13 2.5 36.6 42 -9 15.7 -90 -3.543
23:59 1021 30.15 851 25.13 2.3 36.2 42 -9.2 15.4 -90 -3.543
24:00 1021 30.15 851 25.13 2.2 36 43 -9 15.8 -90 -3.543